FW4143 Weather Reports


time (UTC)temp
C
wind
direction
speed
KPH
gust
KPH
rain 1hr
cm
rain 24hr
cm
rain mn
cm
humidity
%
barometer
mb
20201203153508 7 147 11.3 29.0 0.00 0.03 0.00 64 1024.9
20201203153404 7 144 11.3 29.0 0.00 0.03 0.00 64 1024.8
20201203153305 7 143 12.9 29.0 0.00 0.03 0.00 64 1024.9
20201203153204 7 142 12.9 29.0 0.00 0.03 0.00 64 1024.8
20201203153116 7 141 12.9 29.0 0.00 0.03 0.00 64 1024.8
20201203153022 7 141 14.5 29.0 0.00 0.03 0.00 64 1024.8
20201203152904 7 141 14.5 29.0 0.00 0.03 0.00 64 1024.8
20201203152805 7 142 14.5 29.0 0.00 0.03 0.00 64 1024.7
20201203152704 7 142 14.5 29.0 0.00 0.03 0.00 64 1024.8
20201203152606 7 141 14.5 29.0 0.00 0.03 0.00 64 1024.8
20201203152513 7 141 14.5 29.0 0.00 0.03 0.00 64 1024.8
20201203152410 7 141 14.5 29.0 0.00 0.03 0.00 64 1024.8
20201203152306 7 142 12.9 29.0 0.00 0.03 0.00 64 1024.7
20201203152207 7 142 12.9 29.0 0.00 0.03 0.00 64 1024.8
20201203152104 7 141 12.9 29.0 0.00 0.03 0.00 64 1024.7
20201203152016 7 139 11.3 29.0 0.00 0.03 0.00 64 1024.8
20201203151907 7 139 11.3 29.0 0.00 0.03 0.00 64 1024.7
20201203151804 7 137 11.3 27.4 0.00 0.03 0.00 64 1024.7
20201203151707 7 138 11.3 27.4 0.00 0.03 0.00 64 1024.8
20201203151604 7 141 11.3 27.4 0.00 0.03 0.00 64 1024.7
20201203151510 7 142 11.3 24.1 0.00 0.03 0.00 65 1024.7
20201203151407 7 142 12.9 24.1 0.00 0.03 0.00 65 1024.6
20201203151306 7 144 12.9 24.1 0.00 0.03 0.00 65 1024.6
20201203151204 6 146 12.9 24.1 0.00 0.03 0.00 65 1024.5
20201203151106 6 146 12.9 24.1 0.00 0.03 0.00 65 1024.6
20201203151027 6 146 12.9 24.1 0.00 0.03 0.00 65 1024.5
20201203150906 6 147 11.3 24.1 0.00 0.03 0.00 65 1024.6
20201203150804 6 150 11.3 24.1 0.00 0.03 0.00 65 1024.5
20201203150704 6 151 11.3 27.4 0.00 0.03 0.00 65 1024.6
20201203150604 6 149 11.3 27.4 0.00 0.03 0.00 65 1024.6
20201203150519 6 149 11.3 27.4 0.00 0.03 0.00 65 1024.5
20201203150408 6 148 11.3 27.4 0.00 0.03 0.00 65 1024.6
20201203150308 6 147 11.3 27.4 0.00 0.03 0.00 65 1024.6
20201203150204 6 144 11.3 27.4 0.00 0.03 0.00 65 1024.6
20201203150106 6 143 11.3 27.4 0.00 0.03 0.00 65 1024.6
20201203150023 6 141 12.9 27.4 0.00 0.03 0.00 65 1024.6
20201203145905 6 142 12.9 27.4 0.00 0.03 0.00 65 1024.6
20201203145805 6 140 11.3 27.4 0.00 0.03 0.00 65 1024.6
20201203145704 6 138 11.3 19.3 0.00 0.03 0.00 66 1024.7
20201203145604 6 138 9.7 19.3 0.00 0.03 0.00 66 1024.7
20201203145517 6 137 9.7 19.3 0.00 0.03 0.00 66 1024.7
20201203145404 6 139 9.7 25.7 0.00 0.03 0.00 66 1024.7
20201203145309 6 139 9.7 25.7 0.00 0.03 0.00 66 1024.9
20201203145206 6 140 9.7 25.7 0.00 0.03 0.00 66 1024.8
20201203145105 6 140 9.7 25.7 0.00 0.03 0.00 66 1024.8
20201203145024 6 142 9.7 25.7 0.00 0.03 0.00 66 1024.7
20201203144911 6 143 9.7 25.7 0.00 0.03 0.00 66 1024.8
20201203144804 6 142 9.7 25.7 0.00 0.03 0.00 66 1024.8
20201203144704 6 141 11.3 25.7 0.00 0.03 0.00 66 1024.8
20201203144604 6 139 11.3 25.7 0.00 0.03 0.00 66 1024.8
20201203144513 6 138 11.3 25.7 0.00 0.03 0.00 66 1024.9
20201203144405 6 138 11.3 24.1 0.00 0.03 0.00 66 1024.9
20201203144304 6 136 11.3 24.1 0.00 0.03 0.00 66 1024.8
20201203144206 6 136 11.3 24.1 0.00 0.03 0.00 66 1024.8
20201203144104 6 137 11.3 24.1 0.00 0.03 0.00 66 1024.9
20201203144018 6 134 12.9 24.1 0.00 0.03 0.00 66 1024.8
20201203143904 6 132 12.9 24.1 0.00 0.03 0.00 66 1024.9
20201203143804 6 131 12.9 24.1 0.00 0.03 0.00 66 1024.9
20201203143706 6 130 11.3 22.5 0.00 0.03 0.00 66 1024.9
20201203143604 5 132 11.3 22.5 0.00 0.03 0.00 66 1024.9
20201203143522 5 132 11.3 22.5 0.00 0.03 0.00 66 1024.9
20201203143407 5 132 11.3 22.5 0.00 0.03 0.00 66 1024.9
20201203143310 5 133 11.3 22.5 0.00 0.03 0.00 66 1024.8
20201203143204 5 135 11.3 22.5 0.00 0.03 0.00 66 1024.8
20201203143104 5 134 11.3 22.5 0.00 0.03 0.00 66 1024.8
20201203143022 5 134 11.3 25.7 0.00 0.03 0.00 66 1024.9
20201203142905 5 136 11.3 25.7 0.00 0.03 0.00 66 1024.8
20201203142806 5 136 11.3 25.7 0.00 0.03 0.00 66 1024.7
20201203142705 5 135 11.3 25.7 0.00 0.03 0.00 66 1024.8
20201203142604 5 135 11.3 25.7 0.00 0.03 0.00 67 1024.7
20201203142517 5 135 9.7 25.7 0.00 0.03 0.00 67 1024.7
20201203142404 5 136 11.3 25.7 0.00 0.03 0.00 67 1024.7
20201203142311 5 133 11.3 25.7 0.00 0.03 0.00 67 1024.7
20201203142204 5 131 9.7 25.7 0.00 0.03 0.00 67 1024.7
20201203142112 5 131 9.7 25.7 0.00 0.03 0.00 67 1024.8
20201203142024 5 133 8.0 19.3 0.00 0.03 0.00 67 1024.6
20201203141904 5 132 8.0 19.3 0.00 0.03 0.00 67 1024.5
20201203141804 5 132 8.0 19.3 0.00 0.03 0.00 67 1024.6
20201203141704 5 133 8.0 19.3 0.00 0.03 0.00 67 1024.6
20201203141604 5 133 8.0 19.3 0.00 0.03 0.00 67 1024.6
20201203141527 5 133 8.0 19.3 0.00 0.03 0.00 67 1024.5
20201203141404 5 131 8.0 19.3 0.00 0.03 0.00 68 1024.6
20201203141306 5 132 6.4 16.1 0.00 0.03 0.00 68 1024.6
20201203141204 5 130 6.4 16.1 0.00 0.03 0.00 68 1024.6
20201203141107 5 131 8.0 16.1 0.00 0.03 0.00 68 1024.6
20201203141008 5 132 8.0 16.1 0.00 0.03 0.00 68 1024.5
20201203140905 5 132 8.0 16.1 0.00 0.03 0.00 68 1024.6
20201203140805 5 134 8.0 16.1 0.00 0.03 0.00 68 1024.5
20201203140707 5 135 8.0 17.7 0.00 0.03 0.00 68 1024.5
20201203140604 5 136 8.0 17.7 0.00 0.03 0.00 68 1024.5
20201203140514 5 136 8.0 17.7 0.00 0.03 0.00 69 1024.5
20201203140404 5 136 8.0 17.7 0.00 0.03 0.00 69 1024.5
20201203140304 5 135 8.0 17.7 0.00 0.03 0.00 69 1024.5
20201203140214 5 135 8.0 24.1 0.00 0.03 0.00 69 1024.5
20201203140106 5 134 8.0 24.1 0.00 0.03 0.00 69 1024.5
20201203140023 5 132 8.0 24.1 0.00 0.03 0.00 69 1024.4
20201203135908 5 133 8.0 24.1 0.00 0.03 0.00 69 1024.4
20201203135804 5 133 8.0 24.1 0.00 0.03 0.00 69 1024.4
20201203135705 5 132 8.0 24.1 0.00 0.03 0.00 69 1024.4
20201203135604 4 131 8.0 24.1 0.00 0.03 0.00 69 1024.5
20201203135508 4 131 8.0 24.1 0.00 0.03 0.00 69 1024.4
20201203135408 4 131 6.4 24.1 0.00 0.03 0.00 69 1024.4
20201203135305 4 134 6.4 24.1 0.00 0.03 0.00 69 1024.5
20201203135205 4 134 6.4 16.1 0.00 0.03 0.00 69 1024.4
20201203135106 4 134 6.4 16.1 0.00 0.03 0.00 69 1024.4
20201203135030 4 135 8.0 16.1 0.00 0.03 0.00 69 1024.5
20201203134954 4 133 8.0 16.1 0.00 0.03 0.00 69 1024.5
20201203134841 4 134 6.4 16.1 0.00 0.03 0.00 69 1024.5
20201203134716 4 134 8.0 16.1 0.00 0.03 0.00 69 1024.5
20201203134609 4 134 8.0 16.1 0.00 0.03 0.00 70 1024.4
20201203134510 4 135 8.0 16.1 0.00 0.03 0.00 70 1024.5
20201203134405 4 135 8.0 20.9 0.00 0.03 0.00 70 1024.5
20201203134304 4 134 8.0 20.9 0.00 0.03 0.00 70 1024.4
20201203134204 4 133 8.0 20.9 0.00 0.03 0.00 70 1024.4
20201203134104 4 135 8.0 20.9 0.00 0.03 0.00 70 1024.3
20201203134016 4 134 8.0 20.9 0.00 0.03 0.00 70 1024.3
20201203133910 4 134 8.0 20.9 0.00 0.03 0.00 70 1024.3
20201203133804 4 134 8.0 20.9 0.00 0.03 0.00 70 1024.2
20201203133704 4 134 8.0 20.9 0.00 0.03 0.00 70 1024.2
20201203133604 4 135 8.0 20.9 0.00 0.03 0.00 70 1024.2
20201203133525 4 135 8.0 20.9 0.00 0.03 0.00 70 1024.2
20201203133406 4 136 8.0 16.1 0.00 0.03 0.00 70 1024.1
20201203133304 4 136 8.0 16.1 0.00 0.03 0.00 70 1024.2
20201203133208 4 138 8.0 16.1 0.00 0.03 0.00 70 1024.1
20201203133105 4 139 8.0 16.1 0.00 0.03 0.00 70 1024.1
20201203133018 4 140 8.0 16.1 0.00 0.03 0.00 70 1024.1
20201203132906 4 142 6.4 16.1 0.00 0.03 0.00 71 1024.2
20201203132804 4 142 6.4 16.1 0.00 0.03 0.00 71 1024.1
20201203132704 4 142 6.4 16.1 0.00 0.03 0.00 71 1024.2
20201203132611 4 141 6.4 16.1 0.00 0.03 0.00 71 1024.2
20201203132517 4 140 6.4 16.1 0.00 0.03 0.00 71 1024.1
20201203132405 4 139 6.4 16.1 0.00 0.03 0.00 71 1024.2
20201203132305 4 138 6.4 16.1 0.00 0.03 0.00 71 1024.2
20201203132204 4 139 6.4 16.1 0.00 0.03 0.00 71 1024.2
20201203132105 4 138 6.4 16.1 0.00 0.03 0.00 71 1024.2
20201203132014 4 136 6.4 16.1 0.00 0.03 0.00 71 1024.2
20201203131905 4 137 6.4 16.1 0.00 0.03 0.00 71 1024.2
20201203131808 4 138 8.0 16.1 0.00 0.03 0.00 71 1024.2
20201203131710 4 138 8.0 19.3 0.00 0.03 0.00 71 1024.2
20201203131604 4 137 8.0 19.3 0.00 0.03 0.00 71 1024.2
20201203131517 4 138 8.0 19.3 0.00 0.03 0.00 71 1024.2
20201203131405 4 138 8.0 19.3 0.00 0.03 0.00 71 1024.2
20201203131308 4 139 9.7 19.3 0.00 0.03 0.00 71 1024.2
20201203131204 4 138 9.7 19.3 0.00 0.03 0.00 71 1024.1
20201203131104 4 139 9.7 19.3 0.00 0.03 0.00 71 1024.1
20201203131012 4 139 9.7 20.9 0.00 0.03 0.00 71 1024.1
20201203130904 4 139 9.7 20.9 0.00 0.03 0.00 71 1024.1
20201203130804 4 137 9.7 20.9 0.00 0.03 0.00 71 1024.1
20201203130705 4 135 9.7 20.9 0.00 0.03 0.00 71 1024.1
20201203130604 4 136 9.7 20.9 0.00 0.03 0.00 71 1024.1
20201203130517 4 135 9.7 20.9 0.00 0.03 0.00 71 1024.1
20201203130404 4 135 9.7 20.9 0.00 0.03 0.00 71 1024.0
20201203130304 4 134 9.7 20.9 0.00 0.03 0.00 71 1024.0
20201203130206 4 134 9.7 20.9 0.00 0.03 0.00 71 1024.0
20201203130106 4 133 9.7 20.9 0.00 0.03 0.00 71 1024.0
20201203130010 3 132 8.0 20.9 0.00 0.03 0.00 71 1023.9
20201203125906 3 131 8.0 20.9 0.00 0.03 0.00 71 1024.0
20201203125804 3 133 8.0 20.9 0.00 0.03 0.00 71 1023.9
20201203125705 3 132 8.0 19.3 0.00 0.03 0.00 71 1024.0
20201203125604 3 131 8.0 20.9 0.00 0.03 0.00 71 1023.9
20201203125517 3 130 8.0 20.9 0.00 0.03 0.00 71 1024.0
20201203125405 3 130 8.0 20.9 0.00 0.03 0.00 71 1023.9
20201203125306 3 131 9.7 20.9 0.00 0.03 0.00 71 1023.9
20201203125204 3 132 9.7 20.9 0.00 0.03 0.00 71 1023.8
20201203125104 3 133 9.7 24.1 0.00 0.03 0.00 71 1023.9
20201203125015 3 133 9.7 24.1 0.00 0.03 0.00 71 1023.8
20201203124905 3 132 9.7 24.1 0.00 0.03 0.00 71 1023.9
20201203124804 3 132 9.7 24.1 0.00 0.03 0.00 71 1023.8
20201203124704 3 133 11.3 24.1 0.00 0.03 0.00 71 1023.7
20201203124604 3 133 9.7 24.1 0.00 0.03 0.00 71 1023.8
20201203124524 3 134 9.7 24.1 0.00 0.03 0.00 71 1023.7
20201203124407 3 133 9.7 24.1 0.00 0.03 0.00 71 1023.8
20201203124304 3 133 9.7 24.1 0.00 0.03 0.00 71 1023.6
20201203124204 3 132 9.7 24.1 0.00 0.03 0.00 71 1023.8
20201203124104 3 132 9.7 19.3 0.00 0.03 0.00 71 1023.7
20201203124010 3 132 9.7 19.3 0.00 0.03 0.00 71 1023.7
20201203123904 3 134 9.7 19.3 0.00 0.03 0.00 72 1023.8
20201203123804 3 134 9.7 22.5 0.00 0.03 0.00 72 1023.8
20201203123704 3 131 9.7 22.5 0.00 0.03 0.00 72 1023.6
20201203123605 3 131 9.7 22.5 0.00 0.03 0.00 72 1023.6
20201203123517 3 133 9.7 22.5 0.00 0.03 0.00 72 1023.7
20201203123407 3 133 9.7 22.5 0.00 0.03 0.00 72 1023.6
20201203123314 3 134 9.7 22.5 0.00 0.03 0.00 72 1023.6
20201203123209 3 134 9.7 22.5 0.00 0.03 0.00 72 1023.6
20201203123112 3 133 11.3 22.5 0.00 0.03 0.00 72 1023.6
20201203123021 3 134 11.3 22.5 0.00 0.03 0.00 72 1023.6
20201203122905 3 133 11.3 22.5 0.00 0.03 0.00 72 1023.5
20201203122806 3 133 11.3 22.5 0.00 0.03 0.00 72 1023.5
20201203122716 3 136 11.3 20.9 0.00 0.03 0.00 72 1023.4
20201203122610 3 135 11.3 20.9 0.00 0.03 0.00 72 1023.4
20201203122518 3 135 11.3 20.9 0.00 0.03 0.00 72 1023.4
20201203122404 3 135 11.3 20.9 0.00 0.03 0.00 72 1023.3
20201203122305 3 135 11.3 20.9 0.00 0.03 0.00 72 1023.3
20201203122205 3 135 12.9 20.9 0.00 0.03 0.00 72 1023.3
20201203122104 3 136 12.9 24.1 0.00 0.03 0.00 72 1023.2
20201203122009 3 135 11.3 24.1 0.00 0.03 0.00 72 1023.2
20201203121906 3 136 11.3 24.1 0.00 0.03 0.00 72 1023.2
20201203121807 3 137 11.3 24.1 0.00 0.03 0.00 72 1023.2
20201203121706 3 138 11.3 24.1 0.00 0.03 0.00 72 1023.2
20201203121604 3 137 11.3 24.1 0.00 0.03 0.00 72 1023.1
20201203121514 3 137 11.3 24.1 0.00 0.03 0.00 72 1023.1
20201203121404 3 135 11.3 24.1 0.00 0.03 0.00 72 1023.1
20201203121305 3 135 11.3 24.1 0.00 0.03 0.00 73 1023.1
20201203121204 3 134 11.3 24.1 0.00 0.03 0.00 73 1023.1
20201203121104 3 134 11.3 20.9 0.00 0.03 0.00 73 1023.1
20201203121021 3 134 11.3 20.9 0.00 0.03 0.00 73 1023.1
20201203120904 3 135 11.3 20.9 0.00 0.03 0.00 73 1023.1
20201203120805 3 133 11.3 20.9 0.00 0.03 0.00 73 1023.2
20201203120710 3 133 11.3 20.9 0.00 0.03 0.00 73 1023.1
20201203120605 3 133 11.3 20.9 0.00 0.03 0.00 73 1023.2
20201203120516 3 134 11.3 20.9 0.00 0.03 0.00 73 1023.2
20201203120405 3 135 9.7 20.9 0.00 0.03 0.00 73 1023.1
20201203120304 3 135 11.3 20.9 0.00 0.03 0.00 73 1023.2
20201203120213 3 136 11.3 20.9 0.00 0.03 0.00 73 1023.2
20201203120107 3 136 9.7 20.9 0.00 0.03 0.00 73 1023.2
20201203120023 3 137 9.7 19.3 0.00 0.03 0.00 73 1023.1
20201203115906 3 136 9.7 19.3 0.00 0.03 0.00 73 1023.2
20201203115804 3 137 9.7 19.3 0.00 0.03 0.00 73 1023.2
20201203115706 3 137 9.7 19.3 0.00 0.03 0.00 73 1023.2
20201203115606 3 137 9.7 19.3 0.00 0.03 0.00 73 1023.3
20201203115510 3 136 9.7 19.3 0.00 0.03 0.00 73 1023.3
20201203115404 3 137 9.7 19.3 0.00 0.03 0.00 73 1023.3
20201203115305 3 138 9.7 19.3 0.00 0.03 0.00 73 1023.3
20201203115204 3 137 9.7 19.3 0.00 0.03 0.00 73 1023.3
20201203115104 3 136 9.7 19.3 0.00 0.03 0.00 73 1023.3
20201203115025 3 135 9.7 19.3 0.00 0.03 0.00 73 1023.4
20201203114904 3 135 9.7 19.3 0.00 0.03 0.00 73 1023.4
20201203114804 3 135 9.7 19.3 0.00 0.03 0.00 73 1023.3
20201203114704 3 135 9.7 19.3 0.00 0.03 0.00 73 1023.4
20201203114606 3 134 9.7 19.3 0.00 0.03 0.00 73 1023.4
20201203114517 3 135 9.7 19.3 0.00 0.03 0.00 73 1023.4
20201203114406 3 134 9.7 19.3 0.00 0.03 0.00 73 1023.4
20201203114305 3 134 9.7 19.3 0.00 0.03 0.00 73 1023.4
20201203114204 3 134 8.0 17.7 0.00 0.03 0.00 74 1023.4
20201203114105 3 134 8.0 17.7 0.00 0.03 0.00 74 1023.4
20201203114019 3 136 8.0 16.1 0.00 0.03 0.00 74 1023.5
20201203113904 3 135 8.0 16.1 0.00 0.03 0.00 74 1023.4
20201203113804 3 135 8.0 16.1 0.00 0.03 0.00 74 1023.4
20201203113705 3 134 8.0 17.7 0.00 0.03 0.00 74 1023.5
20201203113606 3 135 8.0 17.7 0.00 0.03 0.00 74 1023.4
20201203113515 3 134 8.0 17.7 0.00 0.03 0.00 74 1023.5
20201203113407 3 133 8.0 17.7 0.00 0.03 0.00 74 1023.4
20201203113305 3 133 8.0 17.7 0.00 0.03 0.00 74 1023.4
20201203113204 3 132 8.0 17.7 0.00 0.03 0.00 74 1023.4
20201203113105 3 133 8.0 17.7 0.00 0.03 0.00 74 1023.4
20201203113025 3 131 8.0 17.7 0.00 0.03 0.00 74 1023.4
20201203112905 3 131 8.0 17.7 0.00 0.03 0.00 74 1023.4
20201203112804 3 132 8.0 17.7 0.00 0.03 0.00 74 1023.4
20201203112704 3 132 8.0 16.1 0.00 0.03 0.00 74 1023.5
20201203112607 3 131 6.4 16.1 0.00 0.03 0.00 75 1023.5
20201203112515 3 132 6.4 16.1 0.00 0.03 0.00 75 1023.5
20201203112405 3 132 6.4 16.1 0.00 0.03 0.00 75 1023.5
20201203112306 3 132 6.4 19.3 0.00 0.03 0.00 75 1023.5
20201203112204 3 133 8.0 19.3 0.00 0.03 0.00 75 1023.5
20201203112105 3 132 8.0 19.3 0.00 0.03 0.00 75 1023.5
20201203112011 3 132 6.4 19.3 0.00 0.03 0.00 75 1023.5
20201203111904 3 132 6.4 19.3 0.00 0.03 0.00 75 1023.5
20201203111804 3 132 8.0 19.3 0.00 0.03 0.00 75 1023.4
20201203111704 3 131 8.0 19.3 0.00 0.03 0.00 75 1023.5
20201203111608 3 132 8.0 19.3 0.00 0.03 0.00 75 1023.4
20201203111516 3 131 8.0 19.3 0.00 0.03 0.00 75 1023.4
20201203111404 3 131 8.0 19.3 0.00 0.03 0.00 76 1023.4
20201203111305 3 133 8.0 16.1 0.00 0.03 0.00 76 1023.3
20201203111204 3 132 6.4 16.1 0.00 0.03 0.00 76 1023.3
20201203111104 3 131 6.4 16.1 0.00 0.03 0.00 76 1023.3
20201203111010 3 131 6.4 16.1 0.00 0.03 0.00 76 1023.3
20201203110904 3 131 6.4 16.1 0.00 0.03 0.00 76 1023.3
20201203110805 3 131 6.4 14.5 0.00 0.03 0.00 76 1023.3
20201203110711 3 129 6.4 14.5 0.00 0.03 0.00 77 1023.3
20201203110604 3 128 6.4 14.5 0.00 0.03 0.00 77 1023.3
20201203110514 3 128 4.8 14.5 0.00 0.03 0.00 77 1023.3
20201203110404 3 127 4.8 11.3 0.00 0.03 0.00 77 1023.4
20201203110304 3 126 4.8 11.3 0.00 0.03 0.00 77 1023.4
20201203110204 3 127 4.8 11.3 0.00 0.03 0.00 77 1023.4
20201203110104 3 126 4.8 9.7 0.00 0.03 0.00 77 1023.4
20201203110020 3 127 4.8 9.7 0.00 0.03 0.00 77 1023.4
20201203105904 3 126 4.8 9.7 0.00 0.03 0.00 77 1023.5
20201203105804 3 127 3.2 9.7 0.00 0.03 0.00 77 1023.5
20201203105704 3 130 3.2 9.7 0.00 0.03 0.00 77 1023.5
20201203105604 3 131 3.2 9.7 0.00 0.03 0.00 77 1023.5
20201203105507 3 130 3.2 9.7 0.00 0.03 0.00 77 1023.5
20201203105404 3 131 3.2 9.7 0.00 0.03 0.00 77 1023.5
20201203105305 3 131 3.2 9.7 0.00 0.03 0.00 77 1023.5
20201203105210 3 131 4.8 9.7 0.00 0.03 0.00 77 1023.5
20201203105104 3 132 3.2 9.7 0.00 0.03 0.00 77 1023.5
20201203105019 3 130 3.2 8.0 0.00 0.03 0.00 77 1023.4
20201203104910 3 130 4.8 8.0 0.00 0.03 0.00 77 1023.5
20201203104810 3 129 4.8 8.0 0.00 0.03 0.00 77 1023.5
20201203104704 3 128 3.2 8.0 0.00 0.03 0.00 77 1023.4
20201203104609 3 127 3.2 8.0 0.00 0.03 0.00 77 1023.4
20201203104526 3 128 3.2 8.0 0.00 0.03 0.00 77 1023.5
20201203104404 3 127 3.2 8.0 0.00 0.03 0.00 77 1023.5
20201203104304 3 127 3.2 8.0 0.00 0.03 0.00 77 1023.4
20201203104205 3 127 3.2 8.0 0.00 0.03 0.00 77 1023.4
20201203104104 3 126 3.2 8.0 0.00 0.03 0.00 78 1023.4
20201203104022 3 127 3.2 8.0 0.00 0.03 0.00 78 1023.4
20201203103904 3 126 3.2 8.0 0.00 0.03 0.00 78 1023.4
20201203103804 3 127 3.2 6.4 0.00 0.03 0.00 78 1023.4
20201203103706 3 127 3.2 6.4 0.00 0.03 0.00 78 1023.4
20201203103604 3 127 3.2 6.4 0.00 0.03 0.00 78 1023.4
20201203103512 3 127 3.2 6.4 0.00 0.03 0.00 78 1023.4
20201203103404 3 126 3.2 6.4 0.00 0.03 0.00 78 1023.5
20201203103306 3 126 3.2 6.4 0.00 0.03 0.00 78 1023.4
20201203103205 3 129 3.2 6.4 0.00 0.03 0.00 78 1023.5
20201203103104 3 130 3.2 6.4 0.00 0.03 0.00 78 1023.4
20201203103017 3 132 1.6 6.4 0.00 0.03 0.00 78 1023.5
20201203102904 3 133 1.6 6.4 0.00 0.03 0.00 78 1023.5
20201203102804 3 134 1.6 6.4 0.00 0.03 0.00 78 1023.5
20201203102708 3 136 1.6 6.4 0.00 0.03 0.00 78 1023.5
20201203102604 3 136 1.6 6.4 0.00 0.03 0.00 78 1023.5
20201203102512 3 137 1.6 6.4 0.00 0.03 0.00 78 1023.5
20201203102404 3 137 1.6 6.4 0.00 0.03 0.00 78 1023.5
20201203102305 3 137 1.6 6.4 0.00 0.03 0.00 77 1023.5
20201203102206 3 136 1.6 6.4 0.00 0.03 0.00 77 1023.5
20201203102104 3 136 0.0 6.4 0.00 0.03 0.00 77 1023.5
20201203102012 3 132 0.0 6.4 0.00 0.03 0.00 77 1023.5
20201203101904 3 131 0.0 4.8 0.00 0.03 0.00 77 1023.6
20201203101809 3 131 0.0 4.8 0.00 0.03 0.00 77 1023.6
20201203101703 3 130 0.0 4.8 0.00 0.03 0.00 77 1023.6
20201203101604 3 133 0.0 4.8 0.00 0.03 0.00 77 1023.6
20201203101512 3 137 0.0 4.8 0.00 0.03 0.00 77 1023.7
20201203101404 3 136 1.6 4.8 0.00 0.03 0.00 77 1023.7
20201203101304 3 135 1.6 4.8 0.00 0.03 0.00 77 1023.7
20201203101204 3 136 1.6 4.8 0.00 0.03 0.00 77 1023.7
20201203101105 3 136 1.6 4.8 0.00 0.03 0.00 77 1023.8
20201203101009 3 136 1.6 4.8 0.00 0.03 0.00 77 1023.8
20201203100908 3 135 1.6 4.8 0.00 0.03 0.00 77 1023.8
20201203100804 3 136 1.6 4.8 0.00 0.03 0.00 77 1023.8
20201203100704 3 137 1.6 4.8 0.00 0.03 0.00 77 1023.7
20201203100604 3 136 1.6 4.8 0.00 0.03 0.00 77 1023.7
20201203100509 3 134 1.6 6.4 0.00 0.03 0.00 77 1023.8
20201203100406 3 133 1.6 8.0 0.00 0.03 0.00 77 1023.7
20201203100305 3 133 1.6 8.0 0.00 0.03 0.00 76 1023.8
20201203100205 3 133 1.6 8.0 0.00 0.03 0.00 76 1023.8
20201203100110 3 133 1.6 8.0 0.00 0.03 0.00 76 1023.8
20201203100022 3 133 1.6 8.0 0.00 0.03 0.00 76 1023.8
20201203095904 3 135 1.6 8.0 0.00 0.03 0.00 76 1023.8
20201203095804 4 136 1.6 8.0 0.00 0.03 0.00 76 1023.8
20201203095705 4 135 1.6 8.0 0.00 0.03 0.00 76 1023.8
20201203095605 4 135 3.2 8.0 0.00 0.03 0.00 76 1023.8
20201203095518 4 135 1.6 8.0 0.00 0.03 0.00 76 1023.8
20201203095404 4 137 1.6 8.0 0.00 0.03 0.00 76 1023.8
20201203095306 4 136 1.6 8.0 0.00 0.03 0.00 76 1023.8
20201203095209 4 137 3.2 8.0 0.00 0.03 0.00 76 1023.8
20201203095107 4 137 3.2 8.0 0.00 0.03 0.00 76 1023.8
20201203095019 4 138 3.2 8.0 0.00 0.03 0.00 76 1023.8
20201203094904 4 139 3.2 8.0 0.00 0.03 0.00 76 1023.8
20201203094804 4 139 3.2 8.0 0.00 0.03 0.00 76 1023.8
20201203094704 4 140 3.2 8.0 0.00 0.03 0.00 76 1023.8
20201203094611 4 140 3.2 8.0 0.00 0.03 0.00 76 1023.8
20201203094522 4 141 3.2 8.0 0.00 0.03 0.00 75 1023.8
20201203094404 4 141 3.2 8.0 0.00 0.03 0.00 75 1023.8
20201203094310 4 143 3.2 8.0 0.00 0.03 0.00 75 1023.8
20201203094204 4 143 3.2 8.0 0.00 0.03 0.00 75 1023.8
20201203094105 4 142 3.2 8.0 0.00 0.03 0.00 75 1023.8
20201203094019 4 140 3.2 9.7 0.00 0.03 0.00 75 1023.7
20201203093904 4 139 3.2 9.7 0.00 0.03 0.00 75 1023.7
20201203093804 4 139 3.2 9.7 0.00 0.03 0.00 75 1023.6
20201203093705 4 138 3.2 9.7 0.00 0.03 0.00 75 1023.6
20201203093604 4 138 3.2 9.7 0.00 0.03 0.00 75 1023.6
20201203093513 4 137 3.2 9.7 0.00 0.03 0.00 75 1023.7
20201203093404 4 138 3.2 9.7 0.00 0.03 0.00 75 1023.7
20201203093305 4 137 3.2 9.7 0.00 0.03 0.00 75 1023.7
20201203093204 4 136 3.2 11.3 0.00 0.03 0.00 75 1023.7
20201203093104 4 137 4.8 11.3 0.00 0.03 0.00 75 1023.8
20201203093024 4 138 4.8 11.3 0.00 0.03 0.00 75 1023.7
20201203092907 4 138 4.8 11.3 0.00 0.03 0.00 75 1023.7
20201203092804 4 138 4.8 11.3 0.00 0.03 0.00 75 1023.7
20201203092706 4 138 4.8 11.3 0.00 0.03 0.00 75 1023.7
20201203092606 4 139 4.8 11.3 0.00 0.03 0.00 75 1023.6
20201203092508 4 139 4.8 11.3 0.00 0.03 0.00 75 1023.7
20201203092404 4 139 4.8 11.3 0.00 0.03 0.00 75 1023.7
20201203092312 4 141 4.8 11.3 0.00 0.03 0.00 75 1023.6
20201203092205 4 140 4.8 9.7 0.00 0.03 0.00 75 1023.6
20201203092106 4 141 3.2 9.7 0.00 0.03 0.00 75 1023.6
20201203092015 4 143 3.2 9.7 0.00 0.03 0.00 75 1023.6
20201203091906 4 143 3.2 9.7 0.00 0.03 0.00 75 1023.6
20201203091804 4 143 3.2 8.0 0.00 0.03 0.00 75 1023.6
20201203091704 4 143 3.2 8.0 0.00 0.03 0.00 75 1023.6
20201203091604 4 143 3.2 8.0 0.00 0.03 0.00 75 1023.5
20201203091518 4 144 3.2 8.0 0.00 0.03 0.00 75 1023.5
20201203091404 4 142 3.2 9.7 0.00 0.03 0.00 75 1023.6
20201203091304 4 139 3.2 11.3 0.00 0.03 0.00 75 1023.6
20201203091204 4 140 4.8 11.3 0.00 0.03 0.00 75 1023.6
20201203091104 4 139 4.8 11.3 0.00 0.03 0.00 75 1023.6
20201203091010 4 137 4.8 11.3 0.00 0.03 0.00 75 1023.7
20201203090904 4 137 4.8 11.3 0.00 0.03 0.00 75 1023.8
20201203090804 4 137 4.8 11.3 0.00 0.03 0.00 75 1023.8
20201203090704 4 138 4.8 11.3 0.00 0.03 0.00 75 1023.8
20201203090605 4 138 4.8 12.9 0.00 0.03 0.00 75 1023.8
20201203090517 4 138 4.8 12.9 0.00 0.03 0.00 75 1023.8
20201203090408 4 140 4.8 12.9 0.00 0.03 0.00 75 1023.8
20201203090305 4 141 4.8 12.9 0.00 0.03 0.00 75 1023.8
20201203090210 4 141 4.8 12.9 0.00 0.03 0.00 75 1023.8
20201203090105 4 142 4.8 12.9 0.00 0.03 0.00 75 1023.8
20201203090020 4 141 4.8 12.9 0.00 0.03 0.00 75 1023.7
20201203085905 4 141 4.8 12.9 0.00 0.03 0.00 75 1023.7
20201203085805 4 141 4.8 12.9 0.00 0.03 0.00 75 1023.6
20201203085703 4 141 4.8 12.9 0.00 0.03 0.00 76 1023.7
20201203085604 4 141 4.8 9.7 0.00 0.03 0.00 76 1023.7
20201203085509 4 140 4.8 9.7 0.00 0.03 0.00 76 1023.7
20201203085404 4 138 4.8 9.7 0.00 0.03 0.00 76 1023.7
20201203085307 4 138 4.8 9.7 0.00 0.03 0.00 76 1023.7
20201203085204 4 138 4.8 9.7 0.00 0.03 0.00 75 1023.6
20201203085105 4 137 4.8 11.3 0.00 0.03 0.00 75 1023.6
20201203085020 4 137 4.8 11.3 0.00 0.03 0.00 75 1023.7
20201203084904 4 137 4.8 11.3 0.00 0.03 0.00 75 1023.8
20201203084804 4 135 4.8 11.3 0.00 0.03 0.00 75 1023.7
20201203084704 4 132 4.8 11.3 0.00 0.03 0.00 75 1023.8
20201203084605 4 131 4.8 11.3 0.00 0.03 0.00 75 1023.8
20201203084510 4 131 4.8 11.3 0.00 0.03 0.00 75 1023.8
20201203084408 4 132 4.8 11.3 0.00 0.03 0.00 75 1023.8
20201203084303 4 132 4.8 11.3 0.00 0.03 0.00 75 1023.8
20201203084204 5 131 4.8 11.3 0.00 0.03 0.00 75 1023.7
20201203084105 5 130 4.8 11.3 0.00 0.03 0.00 75 1023.8
20201203084025 5 130 4.8 11.3 0.00 0.03 0.00 75 1023.8
20201203083904 5 130 4.8 11.3 0.00 0.03 0.00 75 1023.8
20201203083804 5 131 4.8 11.3 0.00 0.03 0.00 75 1023.8
20201203083704 5 132 4.8 11.3 0.00 0.03 0.00 75 1023.8
20201203083604 5 133 4.8 11.3 0.00 0.03 0.00 75 1023.8
20201203083511 5 132 4.8 11.3 0.00 0.03 0.00 75 1023.8
20201203083404 5 131 4.8 11.3 0.00 0.03 0.00 75 1023.8
20201203083305 5 132 4.8 11.3 0.00 0.03 0.00 75 1023.8
20201203083204 5 132 4.8 11.3 0.00 0.03 0.00 75 1023.9
20201203083134 5 133 4.8 11.3 0.00 0.03 0.00 75 1023.9
20201203083016 5 133 4.8 11.3 0.00 0.03 0.00 75 1023.8
20201203082904 5 132 4.8 11.3 0.00 0.03 0.00 75 1023.9
20201203082804 5 131 4.8 11.3 0.00 0.03 0.00 75 1023.8
20201203082704 5 130 4.8 14.5 0.00 0.03 0.00 75 1023.8
20201203082604 5 129 6.4 14.5 0.00 0.03 0.00 75 1023.8
20201203082514 5 128 6.4 14.5 0.00 0.03 0.00 75 1023.8
20201203082403 5 128 4.8 14.5 0.00 0.03 0.00 75 1023.8
20201203082305 5 127 4.8 14.5 0.00 0.03 0.00 75 1023.8
20201203082204 5 127 6.4 14.5 0.00 0.03 0.00 75 1023.8
20201203082107 5 127 6.4 14.5 0.00 0.03 0.00 75 1023.7
20201203082016 5 127 6.4 14.5 0.00 0.03 0.00 75 1023.7
20201203081904 5 127 6.4 14.5 0.00 0.03 0.00 75 1023.7
20201203081808 5 127 6.4 14.5 0.00 0.03 0.00 75 1023.7
20201203081704 5 129 4.8 12.9 0.00 0.03 0.00 75 1023.6
20201203081608 5 129 4.8 12.9 0.00 0.03 0.00 75 1023.7
20201203081516 5 131 4.8 11.3 0.00 0.03 0.00 75 1023.6
20201203081404 5 132 4.8 11.3 0.00 0.03 0.00 75 1023.6
20201203081304 5 132 4.8 11.3 0.00 0.03 0.00 74 1023.7
20201203081204 5 133 4.8 11.3 0.00 0.03 0.00 74 1023.7
20201203081103 5 137 4.8 11.3 0.00 0.03 0.00 74 1023.7
20201203081017 5 139 4.8 11.3 0.00 0.03 0.00 74 1023.7
20201203080907 5 139 4.8 11.3 0.00 0.03 0.00 74 1023.7
20201203080803 5 139 4.8 11.3 0.00 0.03 0.00 74 1023.6
20201203080707 5 139 4.8 12.9 0.00 0.03 0.00 74 1023.6
20201203080604 5 138 4.8 12.9 0.00 0.03 0.00 74 1023.6
20201203080513 5 138 4.8 12.9 0.00 0.03 0.00 74 1023.7
20201203080411 5 138 6.4 12.9 0.00 0.03 0.00 74 1023.6
20201203080305 5 138 6.4 12.9 0.00 0.03 0.00 74 1023.7
20201203080205 5 139 6.4 12.9 0.00 0.03 0.00 74 1023.6
20201203080107 5 137 6.4 12.9 0.00 0.03 0.00 74 1023.7
20201203080012 5 137 6.4 12.9 0.00 0.03 0.00 74 1023.7
20201203075905 5 138 6.4 14.5 0.00 0.03 0.00 74 1023.6
20201203075807 5 138 6.4 14.5 0.00 0.03 0.00 74 1023.6
20201203075706 5 139 6.4 14.5 0.00 0.03 0.00 74 1023.6
20201203075607 5 139 6.4 14.5 0.00 0.03 0.00 74 1023.7
20201203075518 5 140 6.4 14.5 0.00 0.03 0.00 74 1023.6
20201203075404 5 141 6.4 14.5 0.00 0.03 0.00 74 1023.6
20201203075305 5 141 4.8 14.5 0.00 0.03 0.00 74 1023.6
20201203075204 5 140 6.4 14.5 0.00 0.03 0.00 74 1023.5
20201203075104 5 140 6.4 14.5 0.00 0.03 0.00 74 1023.6
20201203075009 5 140 6.4 14.5 0.00 0.03 0.00 74 1023.5
20201203074907 5 141 6.4 12.9 0.00 0.03 0.00 74 1023.6
20201203074805 5 141 6.4 12.9 0.00 0.03 0.00 74 1023.6
20201203074705 5 140 4.8 12.9 0.00 0.03 0.00 74 1023.6
20201203074604 5 142 4.8 12.9 0.00 0.03 0.00 74 1023.6
20201203074515 5 142 6.4 12.9 0.00 0.03 0.00 74 1023.6
20201203074404 5 142 6.4 12.9 0.00 0.03 0.00 74 1023.6
20201203074304 5 141 6.4 12.9 0.00 0.03 0.00 74 1023.6
20201203074204 5 142 6.4 12.9 0.00 0.03 0.00 74 1023.6
20201203074104 5 141 4.8 12.9 0.00 0.03 0.00 74 1023.6
20201203074020 5 140 4.8 12.9 0.00 0.03 0.00 73 1023.6
20201203073904 5 140 4.8 12.9 0.00 0.03 0.00 73 1023.6
20201203073805 5 139 6.4 14.5 0.00 0.03 0.00 73 1023.6
20201203073704 5 139 6.4 14.5 0.00 0.03 0.00 73 1023.6
20201203073604 5 140 6.4 14.5 0.00 0.03 0.00 73 1023.6
20201203073512 5 139 4.8 14.5 0.00 0.03 0.00 73 1023.6
20201203073404 5 139 4.8 14.5 0.00 0.03 0.00 73 1023.6
20201203073306 5 142 4.8 14.5 0.00 0.03 0.00 73 1023.6
20201203073205 5 142 4.8 14.5 0.00 0.03 0.00 73 1023.6
20201203073106 5 141 4.8 14.5 0.00 0.03 0.00 73 1023.6
20201203073018 5 142 4.8 14.5 0.00 0.03 0.00 74 1023.6
20201203072905 5 141 4.8 14.5 0.00 0.03 0.00 74 1023.6
20201203072812 5 143 3.2 11.3 0.00 0.03 0.00 74 1023.5
20201203072704 5 143 4.8 11.3 0.00 0.03 0.00 74 1023.5
20201203072604 5 143 4.8 11.3 0.00 0.03 0.00 74 1023.5
20201203072508 5 142 4.8 11.3 0.00 0.03 0.00 74 1023.5
20201203072404 5 142 3.2 11.3 0.00 0.03 0.00 73 1023.6
20201203072305 5 140 3.2 11.3 0.00 0.03 0.00 73 1023.5
20201203072204 5 140 3.2 11.3 0.00 0.03 0.00 73 1023.5
20201203072105 5 141 3.2 11.3 0.00 0.03 0.00 73 1023.5
20201203072019 5 141 3.2 11.3 0.00 0.03 0.00 73 1023.5
20201203071904 5 141 4.8 11.3 0.00 0.03 0.00 73 1023.4
20201203071804 5 141 4.8 12.9 0.00 0.03 0.00 73 1023.5
20201203071704 5 140 4.8 12.9 0.00 0.03 0.00 73 1023.5
20201203071619 5 140 4.8 12.9 0.00 0.03 0.00 73 1023.4
20201203071547 5 141 4.8 12.9 0.00 0.03 0.00 73 1023.5
20201203071530 5 141 4.8 12.9 0.00 0.03 0.00 73 1023.6
20201203071305 5 143 4.8 12.9 0.00 0.03 0.00 73 1023.5
20201203071204 5 144 4.8 12.9 0.00 0.03 0.00 73 1023.5
20201203071108 5 144 4.8 12.9 0.00 0.03 0.00 73 1023.6
20201203071011 5 144 4.8 12.9 0.00 0.03 0.00 73 1023.5
20201203070915 5 144 4.8 12.9 0.00 0.03 0.00 73 1023.5
20201203070816 5 144 4.8 11.3 0.00 0.03 0.00 73 1023.6
20201203070705 5 145 4.8 11.3 0.00 0.03 0.00 73 1023.6
20201203070605 5 145 4.8 11.3 0.00 0.03 0.00 73 1023.6
20201203070515 5 144 4.8 11.3 0.00 0.03 0.00 73 1023.6
20201203070406 5 145 4.8 11.3 0.00 0.03 0.00 73 1023.6
20201203070314 5 143 4.8 11.3 0.00 0.03 0.00 73 1023.6
20201203070205 5 142 4.8 11.3 0.00 0.03 0.00 73 1023.5
20201203070114 5 141 4.8 9.7 0.00 0.03 0.00 73 1023.6
20201203070018 5 141 4.8 12.9 0.00 0.03 0.00 73 1023.6
20201203065904 5 141 4.8 12.9 0.00 0.03 0.00 73 1023.6
20201203065806 5 141 4.8 12.9 0.00 0.03 0.00 73 1023.6
20201203065709 5 140 4.8 12.9 0.00 0.03 0.00 73 1023.6
20201203065607 5 138 4.8 12.9 0.00 0.03 0.00 73 1023.5
20201203065513 5 137 4.8 12.9 0.00 0.03 0.00 73 1023.6
20201203065405 5 137 4.8 12.9 0.00 0.03 0.00 73 1023.5
20201203065305 5 137 4.8 12.9 0.00 0.03 0.00 73 1023.6
20201203065204 5 136 4.8 12.9 0.00 0.03 0.00 73 1023.6
20201203065104 5 137 3.2 12.9 0.00 0.03 0.00 73 1023.6
20201203065012 5 136 3.2 9.7 0.00 0.03 0.00 73 1023.6
20201203064905 5 136 3.2 9.7 0.00 0.03 0.00 73 1023.6
20201203064804 5 137 3.2 9.7 0.00 0.03 0.00 73 1023.6
20201203064704 5 137 3.2 9.7 0.00 0.03 0.00 73 1023.6
20201203064604 5 138 3.2 9.7 0.00 0.03 0.00 73 1023.6
20201203064518 5 138 1.6 8.0 0.00 0.03 0.00 73 1023.6
20201203064405 5 138 1.6 8.0 0.00 0.03 0.00 73 1023.6
20201203064308 5 139 1.6 8.0 0.00 0.03 0.00 73 1023.6
20201203064205 5 139 1.6 8.0 0.00 0.03 0.00 73 1023.6
20201203064104 5 140 1.6 11.3 0.00 0.03 0.00 73 1023.6
20201203064015 5 139 3.2 11.3 0.00 0.03 0.00 73 1023.6
20201203063904 5 139 3.2 11.3 0.00 0.03 0.00 73 1023.6
20201203063804 5 140 3.2 11.3 0.00 0.03 0.00 73 1023.6
20201203063707 5 141 3.2 11.3 0.00 0.03 0.00 73 1023.6
20201203063604 5 141 4.8 11.3 0.00 0.03 0.00 73 1023.6
20201203063514 5 142 4.8 11.3 0.00 0.03 0.00 73 1023.6
20201203063404 5 143 4.8 11.3 0.00 0.03 0.00 73 1023.6
20201203063304 5 143 4.8 11.3 0.00 0.03 0.00 73 1023.6
20201203063206 5 143 4.8 11.3 0.00 0.03 0.00 72 1023.5
20201203063105 5 142 4.8 11.3 0.00 0.03 0.00 73 1023.6
20201203063015 5 143 3.2 8.0 0.00 0.03 0.00 73 1023.6
20201203062904 5 143 3.2 8.0 0.00 0.03 0.00 73 1023.6
20201203062804 5 143 3.2 8.0 0.00 0.03 0.00 73 1023.5
20201203062704 5 142 3.2 8.0 0.00 0.03 0.00 73 1023.5
20201203062606 5 142 3.2 8.0 0.00 0.03 0.00 73 1023.5
20201203062518 5 141 3.2 8.0 0.00 0.03 0.00 73 1023.5
20201203062409 5 141 3.2 8.0 0.00 0.03 0.00 73 1023.5
20201203062312 5 140 3.2 6.4 0.00 0.03 0.00 73 1023.5
20201203062205 5 141 1.6 6.4 0.00 0.03 0.00 73 1023.5
20201203062109 5 142 1.6 6.4 0.00 0.03 0.00 73 1023.5
20201203062021 5 141 3.2 6.4 0.00 0.03 0.00 73 1023.6
20201203061904 5 140 3.2 6.4 0.00 0.03 0.00 72 1023.5
20201203061816 5 138 3.2 6.4 0.00 0.03 0.00 72 1023.5
20201203061708 5 138 3.2 6.4 0.00 0.03 0.00 72 1023.5
20201203061624 5 137 3.2 6.4 0.00 0.03 0.00 72 1023.5
20201203061514 5 138 3.2 6.4 0.00 0.03 0.00 72 1023.5
20201203061408 5 138 3.2 6.4 0.00 0.03 0.00 72 1023.5
20201203061305 5 137 3.2 6.4 0.00 0.03 0.00 72 1023.5
20201203061204 5 137 3.2 6.4 0.00 0.03 0.00 72 1023.5
20201203061107 5 137 3.2 6.4 0.00 0.03 0.00 72 1023.5
20201203061027 5 138 3.2 11.3 0.00 0.03 0.00 72 1023.5
20201203060905 5 140 3.2 11.3 0.00 0.03 0.00 72 1023.5
20201203060806 5 141 3.2 11.3 0.00 0.03 0.00 71 1023.6
20201203060713 5 142 3.2 11.3 0.00 0.03 0.00 71 1023.6
20201203060604 5 142 3.2 11.3 0.00 0.03 0.00 71 1023.6
20201203060516 5 141 3.2 11.3 0.00 0.03 0.00 71 1023.6
20201203060411 5 142 3.2 11.3 0.00 0.03 0.00 71 1023.6
20201203060308 6 141 3.2 11.3 0.00 0.03 0.00 71 1023.6
20201203060208 6 142 3.2 11.3 0.00 0.03 0.00 71 1023.6
20201203060104 6 143 3.2 11.3 0.00 0.03 0.00 71 1023.6
20201203060018 6 143 3.2 9.7 0.00 0.03 0.00 71 1023.6
20201203055904 6 142 3.2 9.7 0.00 0.03 0.03 71 1023.6
20201203055805 6 142 3.2 9.7 0.00 0.03 0.03 71 1023.6
20201203055705 6 142 3.2 9.7 0.00 0.03 0.03 71 1023.6
20201203055611 6 143 3.2 9.7 0.00 0.03 0.03 71 1023.5
20201203055525 6 142 3.2 9.7 0.00 0.03 0.03 71 1023.5
20201203055407 6 142 3.2 8.0 0.00 0.03 0.03 71 1023.6
20201203055304 6 142 3.2 8.0 0.00 0.03 0.03 71 1023.6
20201203055204 6 142 3.2 8.0 0.00 0.03 0.03 71 1023.5
20201203055104 6 141 3.2 9.7 0.00 0.03 0.03 71 1023.6
20201203055016 6 141 3.2 9.7 0.00 0.03 0.03 71 1023.5
20201203054904 6 143 3.2 9.7 0.00 0.03 0.03 71 1023.5
20201203054804 6 143 4.8 9.7 0.00 0.03 0.03 71 1023.6
20201203054705 6 143 3.2 9.7 0.00 0.03 0.03 71 1023.6
20201203054604 6 143 3.2 9.7 0.00 0.03 0.03 71 1023.6
20201203054523 6 143 4.8 9.7 0.00 0.03 0.03 71 1023.6
20201203054405 6 143 4.8 9.7 0.00 0.03 0.03 71 1023.6
20201203054304 6 143 4.8 9.7 0.00 0.03 0.03 71 1023.6
20201203054204 6 144 3.2 9.7 0.00 0.03 0.03 71 1023.6
20201203054115 6 144 3.2 9.7 0.00 0.03 0.03 71 1023.6
20201203054028 6 143 3.2 9.7 0.00 0.03 0.03 71 1023.7
20201203053914 6 142 3.2 9.7 0.00 0.03 0.03 71 1023.7
20201203053808 6 142 3.2 9.7 0.00 0.03 0.03 71 1023.6
20201203053704 6 142 3.2 9.7 0.00 0.03 0.03 71 1023.7
20201203053605 6 142 1.6 9.7 0.00 0.03 0.03 71 1023.7
20201203053512 6 141 1.6 9.7 0.00 0.03 0.03 71 1023.7
20201203053404 6 140 1.6 8.0 0.00 0.03 0.03 71 1023.7
20201203053306 6 141 1.6 8.0 0.00 0.03 0.03 71 1023.6
20201203053206 6 141 1.6 8.0 0.00 0.03 0.03 71 1023.7
20201203053106 6 141 1.6 8.0 0.00 0.03 0.03 70 1023.7
20201203053022 6 142 3.2 8.0 0.00 0.03 0.03 70 1023.7
20201203052904 6 144 3.2 8.0 0.00 0.03 0.03 70 1023.7
20201203052805 6 144 3.2 8.0 0.00 0.03 0.03 70 1023.8
20201203052708 6 144 3.2 8.0 0.00 0.03 0.03 70 1023.8
20201203052605 6 143 3.2 8.0 0.00 0.03 0.03 70 1023.7
20201203052511 6 145 3.2 8.0 0.00 0.03 0.03 70 1023.8
20201203052404 6 145 3.2 8.0 0.00 0.03 0.03 70 1023.8
20201203052311 6 146 3.2 8.0 0.00 0.03 0.03 70 1023.8
20201203052204 6 147 3.2 8.0 0.00 0.03 0.03 70 1023.8
20201203052109 6 146 3.2 8.0 0.00 0.03 0.03 70 1023.8
20201203052022 6 146 3.2 8.0 0.00 0.03 0.03 70 1023.8
20201203051907 6 146 3.2 8.0 0.00 0.03 0.03 70 1023.8
20201203051811 6 147 3.2 8.0 0.00 0.03 0.03 70 1023.8
20201203051704 6 147 3.2 8.0 0.00 0.03 0.03 70 1023.8
20201203051611 6 149 1.6 8.0 0.00 0.03 0.03 70 1023.8
20201203051510 6 149 1.6 8.0 0.00 0.03 0.03 69 1023.8
20201203051410 6 150 1.6 6.4 0.00 0.03 0.03 69 1023.8
20201203051306 6 149 1.6 6.4 0.00 0.03 0.03 69 1023.8
20201203051204 6 149 1.6 6.4 0.00 0.03 0.03 69 1023.8
20201203051112 6 150 1.6 6.4 0.00 0.03 0.03 69 1023.8
20201203051010 6 149 1.6 6.4 0.00 0.03 0.03 69 1023.8
20201203050907 6 149 1.6 6.4 0.00 0.03 0.03 69 1023.8
20201203050808 6 149 1.6 4.8 0.00 0.03 0.03 69 1023.8
20201203050707 6 148 1.6 4.8 0.00 0.03 0.03 69 1023.8
20201203050604 6 147 1.6 9.7 0.00 0.03 0.03 69 1023.8
20201203050517 6 147 1.6 9.7 0.00 0.03 0.03 69 1023.8
20201203050404 6 146 1.6 9.7 0.00 0.03 0.03 69 1023.8
20201203050316 6 147 3.2 9.7 0.00 0.03 0.03 69 1023.8
20201203050224 6 146 3.2 9.7 0.00 0.03 0.03 69 1023.8
20201203050104 6 148 3.2 9.7 0.00 0.03 0.03 69 1023.8
20201203050020 6 148 3.2 9.7 0.00 0.03 0.03 69 1023.8
20201203045904 6 148 3.2 9.7 0.00 0.03 0.03 69 1023.7
20201203045805 6 148 3.2 9.7 0.00 0.03 0.03 68 1023.6
20201203045706 6 149 3.2 9.7 0.00 0.03 0.03 68 1023.7
20201203045604 6 150 3.2 8.0 0.00 0.03 0.03 68 1023.6
20201203045516 6 149 3.2 8.0 0.00 0.03 0.03 68 1023.6
20201203045407 6 151 3.2 8.0 0.00 0.03 0.03 68 1023.6
20201203045311 6 151 3.2 8.0 0.00 0.03 0.03 68 1023.6
20201203045217 6 151 3.2 8.0 0.00 0.03 0.03 68 1023.6
20201203045108 6 150 3.2 8.0 0.00 0.03 0.03 68 1023.6
20201203045014 6 150 3.2 8.0 0.00 0.03 0.03 68 1023.5
20201203044904 6 150 3.2 11.3 0.00 0.03 0.03 68 1023.6
20201203044804 6 150 3.2 11.3 0.00 0.03 0.03 68 1023.6
20201203044704 6 150 3.2 11.3 0.00 0.03 0.03 68 1023.6
20201203044605 6 150 3.2 11.3 0.00 0.03 0.03 67 1023.6
20201203044518 7 150 4.8 11.3 0.00 0.03 0.03 67 1023.6
20201203044404 7 147 4.8 11.3 0.00 0.03 0.03 67 1023.6
20201203044305 7 148 4.8 11.3 0.00 0.03 0.03 67 1023.6
20201203044205 7 149 4.8 11.3 0.00 0.03 0.03 67 1023.6
20201203044104 7 149 4.8 11.3 0.00 0.03 0.03 67 1023.6
20201203044023 7 150 4.8 11.3 0.00 0.03 0.03 67 1023.5
20201203043904 7 151 4.8 12.9 0.00 0.03 0.03 67 1023.6
20201203043806 7 151 4.8 12.9 0.00 0.03 0.03 67 1023.6
20201203043706 7 152 4.8 12.9 0.00 0.03 0.03 67 1023.6
20201203043616 7 155 6.4 12.9 0.00 0.03 0.03 67 1023.6
20201203043516 7 156 4.8 12.9 0.00 0.03 0.03 67 1023.6
20201203043407 7 156 4.8 12.9 0.00 0.03 0.03 67 1023.6
20201203043314 7 156 4.8 12.9 0.00 0.03 0.03 67 1023.6
20201203043205 7 158 4.8 12.9 0.00 0.03 0.03 67 1023.6
20201203043110 7 160 4.8 12.9 0.00 0.03 0.03 67 1023.6
20201203043023 7 161 4.8 12.9 0.00 0.03 0.03 66 1023.5
20201203042904 7 160 4.8 14.5 0.00 0.03 0.03 66 1023.6
20201203042804 7 160 6.4 14.5 0.00 0.03 0.03 66 1023.6
20201203042704 7 159 4.8 14.5 0.00 0.03 0.03 66 1023.6
20201203042605 7 156 4.8 14.5 0.00 0.03 0.03 66 1023.6
20201203042518 7 158 4.8 14.5 0.00 0.03 0.03 66 1023.6
20201203042408 7 158 4.8 14.5 0.00 0.03 0.03 66 1023.6
20201203042307 7 159 4.8 14.5 0.00 0.03 0.03 66 1023.6
20201203042205 7 159 4.8 14.5 0.00 0.03 0.03 66 1023.6
20201203042104 7 157 4.8 14.5 0.00 0.03 0.03 66 1023.6
20201203042017 7 158 4.8 14.5 0.00 0.03 0.03 66 1023.6
20201203041906 7 159 4.8 11.3 0.00 0.03 0.03 66 1023.6
20201203041817 7 160 4.8 11.3 0.00 0.03 0.03 66 1023.5
20201203041707 7 160 4.8 14.5 0.00 0.03 0.03 65 1023.5
20201203041604 7 160 4.8 14.5 0.00 0.03 0.03 65 1023.6
20201203041518 7 158 6.4 14.5 0.00 0.03 0.03 65 1023.6
20201203041405 7 159 6.4 14.5 0.00 0.03 0.03 65 1023.6
20201203041305 7 158 6.4 14.5 0.00 0.03 0.03 65 1023.6
20201203041204 7 157 6.4 14.5 0.00 0.03 0.03 65 1023.6
20201203041104 7 158 6.4 14.5 0.00 0.03 0.03 65 1023.6
20201203041020 7 157 6.4 14.5 0.00 0.03 0.03 65 1023.6
20201203040904 7 156 6.4 14.5 0.00 0.03 0.03 65 1023.6
20201203040804 7 156 6.4 14.5 0.00 0.03 0.03 65 1023.6
20201203040705 7 158 6.4 16.1 0.00 0.03 0.03 64 1023.6
20201203040604 7 158 6.4 16.1 0.00 0.03 0.03 64 1023.6
20201203040518 7 158 6.4 16.1 0.00 0.03 0.03 64 1023.6
20201203040409 7 157 8.0 16.1 0.00 0.03 0.03 64 1023.5
20201203040305 7 157 8.0 16.1 0.00 0.03 0.03 64 1023.5
20201203040204 7 158 8.0 16.1 0.00 0.03 0.03 64 1023.5
20201203040109 7 157 6.4 16.1 0.00 0.03 0.03 64 1023.5
20201203040030 7 157 6.4 16.1 0.00 0.03 0.03 64 1023.5
20201203035910 7 158 6.4 16.1 0.00 0.03 0.03 63 1023.5
20201203035807 7 159 6.4 16.1 0.00 0.03 0.03 63 1023.5
20201203035707 7 158 6.4 19.3 0.00 0.03 0.03 63 1023.4
20201203035606 7 158 6.4 19.3 0.00 0.03 0.03 63 1023.5
20201203035513 7 159 6.4 19.3 0.00 0.03 0.03 63 1023.5
20201203035405 7 160 6.4 19.3 0.00 0.03 0.03 63 1023.4
20201203035305 7 163 6.4 19.3 0.00 0.03 0.03 63 1023.4
20201203035205 7 163 6.4 19.3 0.00 0.03 0.03 63 1023.4
20201203035108 7 164 6.4 19.3 0.00 0.03 0.03 63 1023.4
20201203035014 8 163 8.0 19.3 0.00 0.03 0.03 63 1023.4
20201203034909 8 163 8.0 19.3 0.00 0.03 0.03 63 1023.4
20201203034804 8 163 8.0 19.3 0.00 0.03 0.03 62 1023.4
20201203034704 8 164 8.0 17.7 0.00 0.03 0.03 62 1023.4
20201203034608 8 165 8.0 14.5 0.00 0.03 0.03 62 1023.4
20201203034519 8 166 8.0 14.5 0.00 0.03 0.03 62 1023.4
20201203034410 8 166 6.4 14.5 0.00 0.03 0.03 62 1023.4
20201203034306 8 168 8.0 14.5 0.00 0.03 0.03 62 1023.4
20201203034204 8 170 6.4 14.5 0.00 0.03 0.03 62 1023.4
20201203034106 8 169 8.0 14.5 0.00 0.03 0.03 62 1023.4
20201203034024 8 171 8.0 17.7 0.00 0.03 0.03 61 1023.4
20201203033904 8 173 8.0 17.7 0.00 0.03 0.03 61 1023.4
20201203033805 8 177 8.0 19.3 0.00 0.03 0.03 61 1023.4
20201203033704 8 179 8.0 19.3 0.00 0.03 0.03 61 1023.4
20201203033605 8 178 8.0 19.3 0.00 0.03 0.03 61 1023.4
20201203033518 8 179 8.0 19.3 0.00 0.03 0.03 61 1023.4
20201203033404 8 180 8.0 19.3 0.00 0.03 0.03 61 1023.4
20201203033307 8 177 8.0 19.3 0.00 0.03 0.03 61 1023.4
20201203033204 8 176 8.0 19.3 0.00 0.03 0.03 60 1023.4
20201203033108 8 177 8.0 19.3 0.00 0.03 0.03 60 1023.4
20201203033017 8 177 8.0 19.3 0.00 0.03 0.03 60 1023.4
20201203032904 8 177 8.0 19.3 0.00 0.03 0.03 60 1023.4
20201203032804 8 175 8.0 16.1 0.00 0.03 0.03 60 1023.4
20201203032704 8 175 8.0 16.1 0.00 0.03 0.03 60 1023.4
20201203032605 8 174 8.0 19.3 0.00 0.03 0.03 60 1023.4
20201203032516 8 172 8.0 19.3 0.00 0.03 0.03 60 1023.3
20201203032405 8 172 8.0 19.3 0.00 0.03 0.03 59 1023.3
20201203032307 8 173 8.0 19.3 0.00 0.03 0.03 59 1023.2
20201203032204 8 173 8.0 19.3 0.00 0.03 0.03 59 1023.3
20201203032104 8 173 8.0 19.3 0.00 0.03 0.03 59 1023.3
20201203032017 8 175 8.0 19.3 0.00 0.03 0.03 59 1023.2
20201203031904 8 175 8.0 19.3 0.00 0.03 0.03 59 1023.2
20201203031806 8 174 8.0 19.3 0.00 0.03 0.03 59 1023.2
20201203031704 8 174 8.0 19.3 0.00 0.03 0.03 59 1023.2
20201203031604 8 174 8.0 14.5 0.00 0.03 0.03 59 1023.3
20201203031512 8 175 8.0 17.7 0.00 0.03 0.03 58 1023.2
20201203031404 8 173 8.0 19.3 0.00 0.03 0.03 58 1023.2
20201203031303 8 172 8.0 19.3 0.00 0.03 0.03 58 1023.1
20201203031204 8 171 8.0 19.3 0.00 0.03 0.03 58 1023.2
20201203031104 8 171 8.0 19.3 0.00 0.03 0.03 58 1023.2
20201203031015 8 170 9.7 19.3 0.00 0.03 0.03 58 1023.1
20201203030903 8 169 9.7 19.3 0.00 0.03 0.03 58 1023.1
20201203030804 8 172 9.7 19.3 0.00 0.03 0.03 57 1023.1
20201203030705 8 171 9.7 19.3 0.00 0.03 0.03 57 1023.1
20201203030607 8 170 9.7 19.3 0.00 0.03 0.03 57 1023.1
20201203030512 8 168 9.7 19.3 0.00 0.03 0.03 57 1023.1
20201203030404 8 168 9.7 22.5 0.00 0.03 0.03 57 1023.1
20201203030305 8 168 11.3 22.5 0.00 0.03 0.03 57 1023.0
20201203030204 8 167 9.7 22.5 0.00 0.03 0.03 57 1023.1
20201203030104 9 166 11.3 22.5 0.00 0.03 0.03 57 1023.1
20201203030019 9 165 11.3 22.5 0.00 0.03 0.03 57 1023.0
20201203025903 9 165 11.3 22.5 0.00 0.03 0.03 57 1023.0
20201203025806 9 163 11.3 22.5 0.00 0.03 0.03 57 1023.0
20201203025704 9 161 11.3 22.5 0.00 0.03 0.03 57 1023.1
20201203025605 9 162 9.7 24.1 0.00 0.03 0.03 57 1023.1
20201203025514 9 163 9.7 24.1 0.00 0.03 0.03 57 1023.1
20201203025404 9 162 9.7 24.1 0.00 0.03 0.03 57 1023.1
20201203025305 9 163 9.7 24.1 0.00 0.03 0.03 57 1023.0
20201203025204 9 164 9.7 24.1 0.00 0.03 0.03 57 1023.1
20201203025104 9 164 9.7 24.1 0.00 0.03 0.03 57 1023.0
20201203025015 9 162 9.7 24.1 0.00 0.03 0.03 57 1023.0
20201203024904 9 162 11.3 24.1 0.00 0.03 0.03 57 1023.0
20201203024804 9 162 11.3 24.1 0.00 0.03 0.03 57 1023.0
20201203024704 9 162 11.3 24.1 0.00 0.03 0.03 58 1023.0
20201203024608 9 166 11.3 24.1 0.00 0.03 0.03 57 1022.9
20201203024517 9 165 11.3 24.1 0.00 0.03 0.03 58 1023.0
20201203024404 9 165 11.3 24.1 0.00 0.03 0.03 57 1022.9
20201203024305 9 164 11.3 24.1 0.00 0.03 0.03 58 1022.9
20201203024207 9 163 11.3 24.1 0.00 0.03 0.03 58 1022.9
20201203024104 9 165 11.3 24.1 0.00 0.03 0.03 57 1022.9
20201203024019 9 166 9.7 24.1 0.00 0.03 0.03 57 1022.9
20201203023904 9 168 9.7 22.5 0.00 0.03 0.03 58 1022.9
20201203023805 9 169 9.7 22.5 0.00 0.03 0.03 58 1022.9
20201203023703 9 167 9.7 22.5 0.00 0.03 0.03 58 1022.9
20201203023604 9 167 9.7 22.5 0.00 0.03 0.03 57 1022.9
20201203023509 9 167 9.7 25.7 0.00 0.03 0.03 58 1022.9
20201203023404 9 168 9.7 25.7 0.00 0.03 0.03 58 1022.9
20201203023306 10 168 11.3 25.7 0.00 0.03 0.03 58 1022.9
20201203023204 10 171 11.3 25.7 0.00 0.03 0.03 57 1022.9
20201203023105 10 170 11.3 25.7 0.00 0.03 0.03 57 1022.9
20201203023022 10 171 11.3 25.7 0.00 0.03 0.03 57 1022.8
20201203022907 10 170 11.3 25.7 0.00 0.03 0.03 57 1022.7
20201203022803 10 169 11.3 25.7 0.00 0.03 0.03 57 1022.7
20201203022704 10 169 11.3 25.7 0.00 0.03 0.03 57 1022.6
20201203022604 10 167 11.3 25.7 0.00 0.03 0.03 57 1022.7
20201203022512 10 168 11.3 24.1 0.00 0.03 0.03 57 1022.6
20201203022407 10 168 11.3 24.1 0.00 0.03 0.03 57 1022.6
20201203022309 10 169 11.3 24.1 0.00 0.03 0.03 57 1022.5
20201203022204 10 169 11.3 24.1 0.00 0.03 0.03 57 1022.5
20201203022105 10 167 11.3 24.1 0.00 0.03 0.03 57 1022.4
20201203022020 10 167 11.3 24.1 0.00 0.03 0.03 57 1022.4
20201203021904 10 168 11.3 24.1 0.00 0.03 0.03 57 1022.4
20201203021805 10 170 11.3 24.1 0.00 0.03 0.03 57 1022.3
20201203021705 10 170 11.3 24.1 0.00 0.03 0.03 57 1022.3
20201203021605 10 174 11.3 22.5 0.00 0.03 0.03 57 1022.3
20201203021514 10 174 11.3 22.5 0.00 0.03 0.03 57 1022.3
20201203021404 10 174 9.7 22.5 0.00 0.03 0.03 57 1022.2
20201203021305 10 173 11.3 29.0 0.00 0.03 0.03 56 1022.2
20201203021204 10 173 11.3 29.0 0.00 0.03 0.03 56 1022.2
20201203021107 10 175 11.3 29.0 0.00 0.03 0.03 56 1022.1
20201203021014 10 176 11.3 29.0 0.00 0.03 0.03 56 1022.1
20201203020904 10 175 11.3 29.0 0.00 0.03 0.03 56 1022.1
20201203020805 10 174 11.3 29.0 0.00 0.03 0.03 56 1022.1
20201203020706 10 173 11.3 29.0 0.00 0.03 0.03 56 1022.0
20201203020604 10 171 11.3 29.0 0.00 0.03 0.03 56 1022.1
20201203020515 10 170 12.9 29.0 0.00 0.03 0.03 56 1022.0
20201203020404 10 170 12.9 29.0 0.00 0.03 0.03 55 1022.0
20201203020304 10 169 12.9 32.2 0.00 0.03 0.03 55 1022.0
20201203020206 10 168 12.9 32.2 0.00 0.03 0.03 55 1022.0
20201203020104 10 168 12.9 32.2 0.00 0.03 0.03 55 1021.9
20201203020015 10 166 12.9 32.2 0.00 0.03 0.03 55 1021.8
20201203015904 10 166 14.5 32.2 0.00 0.03 0.03 55 1021.7
20201203015806 11 168 14.5 32.2 0.00 0.03 0.03 55 1021.7
20201203015706 11 170 16.1 32.2 0.00 0.03 0.03 54 1021.6
20201203015610 11 170 14.5 32.2 0.00 0.03 0.03 54 1021.6
20201203015520 11 170 14.5 32.2 0.00 0.03 0.03 54 1021.6
20201203015404 11 168 16.1 32.2 0.00 0.03 0.03 54 1021.6
20201203015307 11 170 16.1 30.6 0.00 0.03 0.03 54 1021.5
20201203015204 11 169 14.5 25.7 0.00 0.03 0.03 54 1021.5
20201203015104 11 169 14.5 25.7 0.00 0.03 0.03 54 1021.5
20201203015017 11 172 14.5 25.7 0.00 0.03 0.03 53 1021.5
20201203014904 11 174 14.5 25.7 0.00 0.03 0.03 53 1021.5
20201203014804 11 172 14.5 25.7 0.00 0.03 0.03 53 1021.5
20201203014707 11 172 12.9 25.7 0.00 0.03 0.03 53 1021.5
20201203014612 11 172 14.5 25.7 0.00 0.03 0.03 53 1021.4
20201203014518 11 174 12.9 25.7 0.00 0.03 0.03 52 1021.3
20201203014409 11 176 12.9 25.7 0.00 0.03 0.03 52 1021.3
20201203014303 11 175 12.9 25.7 0.00 0.03 0.03 52 1021.3
20201203014205 11 176 12.9 25.7 0.00 0.03 0.03 52 1021.3
20201203014109 11 177 12.9 25.7 0.00 0.03 0.03 52 1021.3
20201203014022 11 175 11.3 25.7 0.00 0.03 0.03 52 1021.3
20201203013905 11 174 11.3 25.7 0.00 0.03 0.03 51 1021.2
20201203013805 11 173 11.3 25.7 0.00 0.03 0.03 51 1021.2
20201203013704 11 172 11.3 25.7 0.00 0.03 0.03 51 1021.2
20201203013603 11 172 11.3 22.5 0.00 0.03 0.03 51 1021.3
20201203013512 11 170 11.3 22.5 0.00 0.03 0.03 50 1021.2
20201203013405 11 170 11.3 22.5 0.00 0.03 0.03 50 1021.1
20201203013307 11 170 9.7 22.5 0.00 0.03 0.03 50 1021.2
20201203013204 11 169 9.7 22.5 0.00 0.03 0.03 50 1021.1
20201203013103 11 168 9.7 22.5 0.00 0.03 0.03 50 1021.1
20201203013040 11 166 9.7 22.5 0.00 0.03 0.03 49 1021.1
20201203012904 11 166 9.7 22.5 0.00 0.03 0.03 49 1021.1
20201203012809 11 166 9.7 22.5 0.00 0.03 0.03 49 1021.0
20201203012704 11 165 9.7 22.5 0.00 0.03 0.03 49 1021.1
20201203012604 11 164 8.0 20.9 0.00 0.03 0.03 49 1021.0
20201203012509 11 164 8.0 20.9 0.00 0.03 0.03 49 1020.9
20201203012404 12 162 8.0 20.9 0.00 0.03 0.03 49 1021.0
20201203012307 12 160 8.0 20.9 0.00 0.03 0.03 49 1020.9
20201203012204 12 160 8.0 20.9 0.00 0.03 0.03 49 1020.9
20201203012104 12 160 8.0 20.9 0.00 0.03 0.03 49 1020.9
20201203012018 12 160 8.0 20.9 0.00 0.03 0.03 49 1020.8
20201203011903 12 160 8.0 20.9 0.00 0.03 0.03 48 1020.9
20201203011805 12 158 8.0 20.9 0.00 0.03 0.03 48 1020.8
20201203011704 12 158 8.0 20.9 0.00 0.03 0.03 48 1020.8
20201203011607 12 159 8.0 20.9 0.00 0.03 0.03 48 1020.7
20201203011518 12 158 8.0 20.9 0.00 0.03 0.03 48 1020.7
20201203011404 12 159 9.7 20.9 0.00 0.03 0.03 48 1020.7
20201203011304 12 160 9.7 20.9 0.00 0.03 0.03 48 1020.7
20201203011206 12 161 9.7 20.9 0.00 0.03 0.03 48 1020.7
20201203011107 12 159 9.7 20.9 0.00 0.03 0.03 48 1020.7
20201203011012 12 159 9.7 20.9 0.00 0.03 0.03 47 1020.7
20201203010904 12 159 9.7 20.9 0.00 0.03 0.03 47 1020.6
20201203010804 12 158 9.7 20.9 0.00 0.03 0.03 47 1020.6
20201203010705 12 158 9.7 20.9 0.00 0.03 0.03 47 1020.6
20201203010604 12 158 9.7 22.5 0.00 0.03 0.03 47 1020.6
20201203010511 12 158 9.7 22.5 0.00 0.03 0.03 47 1020.5
20201203010406 12 158 9.7 22.5 0.00 0.03 0.03 47 1020.5
20201203010305 12 158 9.7 22.5 0.00 0.03 0.03 47 1020.6
20201203010204 12 158 9.7 22.5 0.00 0.03 0.03 47 1020.5
20201203010130 12 156 9.7 22.5 0.00 0.03 0.03 46 1020.5
20201203010021 12 154 11.3 22.5 0.00 0.03 0.03 46 1020.5
20201203005904 12 154 9.7 22.5 0.00 0.03 0.03 46 1020.5
20201203005807 12 156 9.7 22.5 0.00 0.03 0.03 46 1020.5
20201203005711 12 156 9.7 22.5 0.00 0.03 0.03 46 1020.4
20201203005610 12 157 9.7 25.7 0.00 0.03 0.03 46 1020.4
20201203005519 12 157 9.7 25.7 0.00 0.03 0.03 46 1020.4
20201203005406 12 155 9.7 25.7 0.00 0.03 0.03 46 1020.4
20201203005305 12 154 9.7 25.7 0.00 0.03 0.03 46 1020.4
20201203005207 12 154 9.7 25.7 0.00 0.03 0.03 45 1020.4
20201203005109 12 155 9.7 25.7 0.00 0.03 0.03 45 1020.4
20201203005022 12 158 9.7 25.7 0.00 0.03 0.03 45 1020.3
20201203004906 12 158 9.7 25.7 0.00 0.03 0.03 45 1020.3
20201203004804 12 159 11.3 25.7 0.00 0.03 0.03 45 1020.2
20201203004705 12 158 11.3 25.7 0.00 0.03 0.03 45 1020.3
20201203004616 12 156 9.7 25.7 0.00 0.03 0.03 45 1020.2
20201203004513 12 155 9.7 22.5 0.00 0.03 0.03 45 1020.2
20201203004404 12 155 9.7 22.5 0.00 0.03 0.03 45 1020.2
20201203004309 12 156 9.7 22.5 0.00 0.03 0.03 45 1020.1
20201203004209 12 155 9.7 22.5 0.00 0.03 0.03 45 1020.1
20201203004105 12 154 9.7 22.5 0.00 0.03 0.03 45 1020.2
20201203004012 12 154 9.7 22.5 0.00 0.03 0.03 45 1020.2
20201203003904 12 152 9.7 22.5 0.00 0.03 0.03 44 1020.2
20201203003804 12 150 8.0 20.9 0.00 0.03 0.03 45 1020.2
20201203003708 12 151 8.0 20.9 0.00 0.03 0.03 44 1020.1
20201203003604 13 151 8.0 20.9 0.00 0.03 0.03 45 1020.1
20201203003512 13 151 8.0 20.9 0.00 0.03 0.03 44 1020.1
20201203003404 13 152 9.7 20.9 0.00 0.03 0.03 44 1020.0
20201203003304 13 151 9.7 20.9 0.00 0.03 0.03 44 1020.0
20201203003204 13 152 9.7 19.3 0.00 0.03 0.03 44 1020.0
20201203003104 13 154 8.0 19.3 0.00 0.03 0.03 44 1020.1
20201203003014 13 154 8.0 19.3 0.00 0.03 0.03 44 1020.0
20201203002909 13 155 8.0 19.3 0.00 0.03 0.03 44 1020.0
20201203002804 13 156 8.0 19.3 0.00 0.03 0.03 44 1020.0
20201203002704 13 155 8.0 20.9 0.00 0.03 0.03 44 1019.9
20201203002604 13 156 9.7 20.9 0.00 0.03 0.03 44 1019.9
20201203002517 13 156 8.0 20.9 0.00 0.03 0.03 44 1019.9
20201203002404 13 155 8.0 20.9 0.00 0.03 0.03 44 1019.9
20201203002309 13 156 8.0 20.9 0.00 0.03 0.03 44 1019.8
20201203002207 13 157 8.0 20.9 0.00 0.03 0.03 44 1019.8
20201203002106 13 156 8.0 20.9 0.00 0.03 0.03 44 1019.8
20201203002021 13 154 8.0 20.9 0.00 0.03 0.03 44 1019.7
20201203001905 13 155 8.0 20.9 0.00 0.03 0.03 44 1019.7
20201203001804 13 154 8.0 20.9 0.00 0.03 0.03 43 1019.7
20201203001705 13 156 8.0 19.3 0.00 0.03 0.03 43 1019.7
20201203001603 13 155 6.4 19.3 0.00 0.03 0.03 43 1019.7
20201203001531 13 156 6.4 19.3 0.00 0.03 0.03 43 1019.6
20201203001404 13 156 6.4 19.3 0.00 0.03 0.03 43 1019.6
20201203001304 13 156 6.4 19.3 0.00 0.03 0.03 43 1019.6
20201203001204 13 155 6.4 19.3 0.00 0.03 0.03 43 1019.6
20201203001105 13 154 6.4 19.3 0.00 0.03 0.03 43 1019.5
20201203001019 13 154 6.4 14.5 0.00 0.03 0.03 43 1019.5
20201203000905 13 153 6.4 16.1 0.00 0.03 0.03 43 1019.5
20201203000813 13 153 8.0 16.1 0.00 0.03 0.03 43 1019.5
20201203000738 13 151 6.4 16.1 0.00 0.03 0.03 43 1019.5
20201203000714 13 153 8.0 16.1 0.00 0.03 0.03 43 1019.5
20201203000623 13 152 8.0 16.1 0.00 0.03 0.03 42 1019.5
20201203000608 13 151 6.4 16.1 0.00 0.03 0.03 43 1019.5
20201203000423 13 151 6.4 16.1 0.00 0.03 0.03 43 1019.4
20201203000250 13 151 8.0 16.1 0.00 0.03 0.03 43 1019.4
20201203000116 13 151 8.0 16.1 0.00 0.03 0.03 42 1019.4
20201203000018 13 152 8.0 16.1 0.00 0.03 0.03 42 1019.4
20201202235904 13 152 6.4 16.1 0.00 0.03 0.03 42 1019.4
20201202235804 13 152 6.4 16.1 0.00 0.03 0.03 42 1019.4
20201202235704 13 152 6.4 16.1 0.00 0.03 0.03 42 1019.4
20201202235604 13 152 6.4 16.1 0.00 0.03 0.03 42 1019.4
20201202235520 13 152 6.4 14.5 0.00 0.03 0.03 42 1019.4
20201202235406 13 151 6.4 14.5 0.00 0.03 0.03 42 1019.4
20201202235307 13 151 6.4 14.5 0.00 0.03 0.03 42 1019.3
20201202235213 13 152 6.4 14.5 0.00 0.03 0.03 42 1019.4
20201202235109 13 150 6.4 14.5 0.00 0.03 0.03 42 1019.3
20201202235021 13 149 6.4 12.9 0.00 0.03 0.03 42 1019.3
20201202234905 14 152 6.4 12.9 0.00 0.03 0.03 42 1019.3
20201202234804 14 151 6.4 14.5 0.00 0.03 0.03 41 1019.3
20201202234711 14 151 6.4 14.5 0.00 0.03 0.03 41 1019.3
20201202234610 14 151 8.0 14.5 0.00 0.03 0.03 41 1019.3
20201202234522 14 152 8.0 14.5 0.00 0.03 0.03 41 1019.2
20201202234404 14 153 8.0 14.5 0.00 0.03 0.03 41 1019.2
20201202234304 14 151 8.0 14.5 0.00 0.03 0.03 41 1019.2
20201202234205 14 151 8.0 14.5 0.00 0.03 0.03 41 1019.2
20201202234110 14 152 8.0 14.5 0.00 0.03 0.03 41 1019.2
20201202234019 14 154 8.0 19.3 0.00 0.03 0.03 41 1019.2
20201202233904 14 150 8.0 19.3 0.00 0.03 0.03 40 1019.1
20201202233804 14 151 8.0 19.3 0.00 0.03 0.03 40 1019.1
20201202233704 14 150 8.0 19.3 0.00 0.03 0.03 40 1019.1
20201202233604 14 150 8.0 19.3 0.00 0.03 0.03 40 1019.1
20201202233509 14 149 8.0 19.3 0.00 0.03 0.03 40 1019.1
20201202233404 14 148 6.4 19.3 0.00 0.03 0.03 40 1019.1
20201202233304 14 149 6.4 19.3 0.00 0.03 0.03 40 1019.1
20201202233206 14 149 6.4 19.3 0.00 0.03 0.03 40 1019.1
20201202233104 14 149 6.4 19.3 0.00 0.03 0.03 40 1019.1
20201202233018 15 148 6.4 17.7 0.00 0.03 0.03 40 1019.1
20201202232904 15 147 6.4 17.7 0.00 0.03 0.03 40 1019.1
20201202232804 15 147 6.4 17.7 0.00 0.03 0.03 40 1019.1
20201202232704 15 148 6.4 17.7 0.00 0.03 0.03 40 1019.0
20201202232606 15 148 6.4 17.7 0.00 0.03 0.03 39 1019.0
20201202232514 15 147 6.4 17.7 0.00 0.03 0.03 39 1019.1
20201202232404 15 147 8.0 17.7 0.00 0.03 0.03 39 1019.0
20201202232305 15 145 8.0 17.7 0.00 0.03 0.03 39 1019.0
20201202232204 15 146 8.0 17.7 0.00 0.03 0.03 39 1019.0
20201202232104 15 146 8.0 17.7 0.00 0.03 0.03 39 1018.9
20201202232012 15 145 8.0 17.7 0.00 0.03 0.03 39 1018.8
20201202231904 15 147 8.0 17.7 0.00 0.03 0.03 39 1018.9
20201202231803 15 146 8.0 17.7 0.00 0.03 0.03 39 1018.8
20201202231707 15 147 8.0 17.7 0.00 0.03 0.03 39 1018.8
20201202231605 15 146 8.0 17.7 0.00 0.03 0.03 39 1018.8
20201202231513 15 148 8.0 17.7 0.00 0.03 0.03 39 1018.8
20201202231404 15 149 8.0 17.7 0.00 0.03 0.03 39 1018.8
20201202231307 15 151 8.0 17.7 0.00 0.03 0.03 38 1018.7
20201202231204 15 151 8.0 17.7 0.00 0.03 0.03 38 1018.7
20201202231106 15 150 8.0 17.7 0.00 0.03 0.03 39 1018.7
20201202231028 15 149 8.0 17.7 0.00 0.03 0.03 38 1018.7
20201202230912 15 149 8.0 17.7 0.00 0.03 0.03 38 1018.7
20201202230804 15 149 8.0 17.7 0.00 0.03 0.03 38 1018.7
20201202230705 15 149 8.0 17.7 0.00 0.03 0.03 38 1018.7
20201202230605 15 147 8.0 17.7 0.00 0.03 0.03 38 1018.7
20201202230514 15 148 8.0 17.7 0.00 0.03 0.03 38 1018.7
20201202230404 15 147 6.4 17.7 0.00 0.03 0.03 38 1018.7
20201202230308 15 147 8.0 25.7 0.00 0.03 0.03 38 1018.7
20201202230204 15 147 8.0 25.7 0.00 0.03 0.03 37 1018.7
20201202230108 15 147 8.0 25.7 0.00 0.03 0.03 37 1018.7
20201202230012 16 148 9.7 25.7 0.00 0.03 0.03 37 1018.6
20201202225907 16 149 9.7 25.7 0.00 0.03 0.03 37 1018.7
20201202225804 16 147 9.7 25.7 0.00 0.03 0.03 37 1018.7
20201202225704 16 146 9.7 25.7 0.00 0.03 0.03 37 1018.7
20201202225606 16 147 11.3 25.7 0.00 0.03 0.03 37 1018.6
20201202225509 16 146 11.3 25.7 0.00 0.03 0.03 37 1018.6
20201202225410 16 145 11.3 25.7 0.00 0.03 0.03 36 1018.6
20201202225305 16 145 12.9 27.4 0.00 0.03 0.03 36 1018.6
20201202225205 16 145 11.3 27.4 0.00 0.03 0.03 36 1018.6
20201202225106 16 146 11.3 27.4 0.00 0.03 0.03 36 1018.6
20201202225012 16 145 11.3 27.4 0.00 0.03 0.03 36 1018.5
20201202224906 16 145 11.3 27.4 0.00 0.03 0.03 36 1018.5
20201202224804 16 147 11.3 27.4 0.00 0.03 0.03 36 1018.6
20201202224705 16 147 11.3 27.4 0.00 0.03 0.03 36 1018.6
20201202224607 16 147 12.9 27.4 0.00 0.03 0.03 36 1018.5
20201202224518 16 147 12.9 27.4 0.00 0.03 0.03 36 1018.6
20201202224404 16 147 12.9 27.4 0.00 0.03 0.03 36 1018.5
20201202224304 16 147 12.9 25.7 0.00 0.03 0.03 36 1018.5
20201202224204 16 148 12.9 25.7 0.00 0.03 0.03 36 1018.5
20201202224104 16 146 12.9 25.7 0.00 0.03 0.03 36 1018.5
20201202224012 16 145 12.9 25.7 0.00 0.03 0.03 36 1018.6
20201202223904 16 145 12.9 25.7 0.00 0.03 0.03 36 1018.5
20201202223806 16 143 12.9 25.7 0.00 0.03 0.03 36 1018.5
20201202223707 16 143 12.9 25.7 0.00 0.03 0.03 36 1018.5
20201202223606 16 143 12.9 25.7 0.00 0.03 0.03 35 1018.5
20201202223521 16 144 12.9 25.7 0.00 0.03 0.03 36 1018.5
20201202223405 16 144 11.3 25.7 0.00 0.03 0.03 36 1018.5
20201202223307 16 143 11.3 25.7 0.00 0.03 0.03 36 1018.5
20201202223205 16 141 11.3 25.7 0.00 0.03 0.03 36 1018.5
20201202223104 16 143 11.3 25.7 0.00 0.03 0.03 36 1018.5
20201202223025 16 144 9.7 25.7 0.00 0.03 0.03 36 1018.5
20201202222905 16 145 9.7 25.7 0.00 0.03 0.03 36 1018.4
20201202222807 16 148 9.7 25.7 0.00 0.03 0.03 36 1018.4
20201202222712 16 148 9.7 25.7 0.00 0.03 0.03 36 1018.4
20201202222604 16 149 9.7 22.5 0.00 0.03 0.03 37 1018.3
20201202222518 16 150 9.7 24.1 0.00 0.03 0.03 36 1018.3
20201202222403 16 152 9.7 24.1 0.00 0.03 0.03 36 1018.2
20201202222305 16 154 9.7 24.1 0.00 0.03 0.03 36 1018.3
20201202222208 16 157 9.7 24.1 0.00 0.03 0.03 36 1018.3
20201202222104 16 155 11.3 24.1 0.00 0.03 0.03 37 1018.3
20201202222015 16 156 11.3 24.1 0.00 0.03 0.03 36 1018.2
20201202221905 16 158 11.3 24.1 0.00 0.03 0.03 37 1018.2
20201202221804 16 156 11.3 24.1 0.00 0.03 0.03 36 1018.2
20201202221704 16 157 11.3 24.1 0.00 0.03 0.03 36 1018.2
20201202221619 16 157 12.9 24.1 0.00 0.03 0.03 36 1018.1
20201202221520 16 156 12.9 25.7 0.00 0.03 0.03 36 1018.1
20201202221409 16 156 12.9 25.7 0.00 0.03 0.03 37 1018.1
20201202221304 16 154 12.9 25.7 0.00 0.03 0.03 36 1018.1
20201202221207 16 154 12.9 25.7 0.00 0.03 0.03 37 1018.1
20201202221105 16 155 12.9 25.7 0.00 0.03 0.03 36 1018.1
20201202221016 17 153 11.3 25.7 0.00 0.03 0.03 37 1018.1
20201202220907 17 151 11.3 25.7 0.00 0.03 0.03 36 1018.1
20201202220805 17 153 11.3 25.7 0.00 0.03 0.03 37 1018.1
20201202220704 17 155 11.3 25.7 0.00 0.03 0.03 37 1018.1
20201202220604 17 154 11.3 25.7 0.00 0.03 0.03 37 1018.1
20201202220515 17 153 11.3 24.1 0.00 0.03 0.03 37 1018.1
20201202220407 17 154 11.3 22.5 0.00 0.03 0.03 37 1018.0
20201202220308 17 154 9.7 22.5 0.00 0.03 0.03 37 1018.1
20201202220204 17 157 11.3 22.5 0.00 0.03 0.03 37 1018.1
20201202220107 17 158 11.3 22.5 0.00 0.03 0.03 38 1018.1
20201202220030 17 158 11.3 19.3 0.00 0.03 0.03 37 1018.1
20201202215907 17 157 11.3 19.3 0.00 0.03 0.03 37 1018.0
20201202215804 17 155 11.3 25.7 0.00 0.03 0.03 37 1018.0
20201202215708 17 155 9.7 25.7 0.00 0.03 0.03 38 1018.0
20201202215609 17 156 9.7 25.7 0.00 0.03 0.03 38 1018.0
20201202215521 17 156 9.7 25.7 0.00 0.03 0.03 38 1017.9
20201202215404 17 155 8.0 25.7 0.00 0.03 0.03 37 1018.0
20201202215306 17 154 8.0 25.7 0.00 0.03 0.03 37 1017.9
20201202215204 17 149 8.0 25.7 0.00 0.03 0.03 37 1018.0
20201202215104 17 150 8.0 25.7 0.00 0.03 0.03 38 1017.9
20201202215015 17 153 8.0 25.7 0.00 0.03 0.03 38 1018.0
20201202214903 17 154 8.0 25.7 0.00 0.03 0.03 38 1017.8
20201202214803 17 157 8.0 27.4 0.00 0.03 0.03 38 1017.8
20201202214704 17 156 9.7 27.4 0.00 0.03 0.03 39 1017.8
20201202214605 17 157 9.7 27.4 0.00 0.03 0.03 39 1017.8
20201202214519 17 158 9.7 27.4 0.00 0.03 0.03 39 1017.8
20201202214404 17 159 11.3 27.4 0.00 0.03 0.03 39 1017.8
20201202214304 17 161 11.3 27.4 0.00 0.03 0.03 39 1017.8
20201202214210 17 161 11.3 27.4 0.00 0.03 0.03 38 1017.8
20201202214106 17 159 12.9 27.4 0.00 0.03 0.03 38 1017.8
20201202214021 17 158 12.9 27.4 0.00 0.03 0.03 38 1017.7
20201202213904 17 159 12.9 27.4 0.00 0.03 0.03 38 1017.7
20201202213804 17 159 11.3 25.7 0.00 0.03 0.03 39 1017.8
20201202213705 17 159 11.3 25.7 0.00 0.03 0.03 38 1017.7
20201202213619 17 158 11.3 25.7 0.00 0.03 0.03 38 1017.7
20201202213515 17 159 9.7 25.7 0.00 0.03 0.03 38 1017.7
20201202213404 17 158 9.7 22.5 0.00 0.03 0.03 38 1017.7
20201202213304 17 157 8.0 22.5 0.00 0.03 0.03 38 1017.8
20201202213205 17 157 9.7 22.5 0.00 0.03 0.03 38 1017.8
20201202213104 17 159 9.7 22.5 0.00 0.03 0.03 39 1017.8
20201202213018 17 158 8.0 22.5 0.00 0.03 0.03 39 1017.7
20201202212905 17 154 8.0 20.9 0.00 0.03 0.03 39 1017.8
20201202212804 17 154 8.0 20.9 0.00 0.03 0.03 40 1017.8
20201202212705 17 152 9.7 20.9 0.00 0.03 0.03 41 1017.8
20201202212604 17 151 9.7 20.9 0.00 0.03 0.03 41 1017.8
20201202212521 17 149 9.7 20.9 0.00 0.03 0.03 41 1017.7
20201202212404 17 148 9.7 20.9 0.00 0.03 0.03 41 1017.7
20201202212305 17 148 9.7 20.9 0.00 0.03 0.03 40 1017.7
20201202212206 17 146 9.7 20.9 0.00 0.03 0.03 40 1017.7
20201202212104 17 146 9.7 20.9 0.00 0.03 0.03 40 1017.7
20201202212017 17 148 8.0 20.9 0.00 0.03 0.03 40 1017.7
20201202211904 17 149 8.0 20.9 0.00 0.03 0.03 40 1017.7
20201202211805 17 148 8.0 20.9 0.00 0.03 0.03 40 1017.7
20201202211706 17 149 8.0 20.9 0.00 0.03 0.03 41 1017.8
20201202211604 17 150 8.0 19.3 0.00 0.03 0.03 41 1017.7
20201202211518 17 150 8.0 19.3 0.00 0.03 0.03 41 1017.7
20201202211404 17 150 9.7 19.3 0.00 0.03 0.03 41 1017.8
20201202211307 17 149 9.7 19.3 0.00 0.03 0.03 40 1017.8
20201202211209 17 147 9.7 19.3 0.00 0.03 0.03 41 1017.8
20201202211105 17 147 9.7 27.4 0.00 0.03 0.03 41 1017.7
20201202211016 17 142 11.3 29.0 0.00 0.03 0.03 41 1017.8
20201202210904 17 141 11.3 29.0 0.00 0.03 0.03 41 1017.8
20201202210804 17 140 11.3 29.0 0.00 0.03 0.03 41 1017.8
20201202210708 17 139 11.3 29.0 0.00 0.03 0.03 41 1017.8
20201202210607 17 138 11.3 29.0 0.00 0.03 0.03 41 1017.8
20201202210514 16 136 11.3 29.0 0.00 0.03 0.03 41 1017.8
20201202210404 16 135 11.3 29.0 0.00 0.03 0.03 41 1017.7
20201202210304 16 135 11.3 29.0 0.00 0.03 0.03 41 1017.7
20201202210215 16 133 11.3 29.0 0.00 0.03 0.03 41 1017.7
20201202210104 17 132 11.3 29.0 0.00 0.03 0.03 42 1017.9
20201202210025 16 132 11.3 22.5 0.00 0.03 0.03 42 1017.7
20201202205905 16 132 9.7 22.5 0.00 0.03 0.03 42 1017.7
20201202205808 16 132 9.7 22.5 0.00 0.03 0.03 42 1017.8
20201202205707 16 133 9.7 22.5 0.00 0.03 0.03 41 1017.7
20201202205603 16 133 9.7 22.5 0.00 0.03 0.03 42 1017.8
20201202205523 16 133 9.7 22.5 0.00 0.03 0.03 42 1017.7
20201202205408 16 135 11.3 22.5 0.00 0.03 0.03 41 1017.7
20201202205307 16 135 11.3 22.5 0.00 0.03 0.03 42 1017.8
20201202205205 16 137 11.3 22.5 0.00 0.03 0.03 42 1017.8
20201202205105 16 139 9.7 22.5 0.00 0.03 0.03 42 1017.8
20201202205021 16 141 11.3 22.5 0.00 0.03 0.03 42 1017.8
20201202204904 16 141 11.3 25.7 0.00 0.03 0.03 42 1017.9
20201202204804 16 142 11.3 25.7 0.00 0.03 0.03 42 1017.8
20201202204704 16 142 11.3 25.7 0.00 0.03 0.03 42 1017.8
20201202204607 16 144 11.3 25.7 0.00 0.03 0.03 42 1017.8
20201202204523 16 146 11.3 25.7 0.00 0.03 0.03 42 1017.8
20201202204404 16 148 11.3 25.7 0.00 0.03 0.03 42 1017.8
20201202204305 16 149 11.3 25.7 0.00 0.03 0.03 43 1017.7
20201202204205 16 151 9.7 25.7 0.00 0.03 0.03 43 1017.7
20201202204104 16 152 9.7 25.7 0.00 0.03 0.03 43 1017.7
20201202204022 16 153 9.7 25.7 0.00 0.03 0.03 44 1017.7
20201202203911 16 154 8.0 20.9 0.00 0.03 0.03 44 1017.7
20201202203804 16 153 8.0 20.9 0.00 0.03 0.03 43 1017.7
20201202203704 16 152 9.7 20.9 0.00 0.03 0.03 43 1017.5
20201202203604 16 150 9.7 20.9 0.00 0.03 0.03 43 1017.6
20201202203510 16 150 8.0 20.9 0.00 0.03 0.03 44 1017.6
20201202203405 16 150 8.0 20.9 0.00 0.03 0.03 45 1017.6
20201202203306 16 148 9.7 22.5 0.00 0.03 0.03 45 1017.6
20201202203204 16 144 9.7 22.5 0.00 0.03 0.03 45 1017.6
20201202203109 16 141 9.7 22.5 0.00 0.03 0.03 45 1017.6
20201202203010 16 142 9.7 22.5 0.00 0.03 0.03 45 1017.6
20201202202903 16 142 11.3 22.5 0.00 0.03 0.03 44 1017.6
20201202202804 16 142 9.7 22.5 0.00 0.03 0.03 44 1017.6
20201202202704 16 142 11.3 22.5 0.00 0.03 0.03 44 1017.6
20201202202605 16 139 11.3 24.1 0.00 0.03 0.03 45 1017.7
20201202202520 16 139 11.3 24.1 0.00 0.03 0.03 45 1017.7
20201202202404 16 140 11.3 24.1 0.00 0.03 0.03 44 1017.6
20201202202319 16 140 11.3 24.1 0.00 0.03 0.03 44 1017.7
20201202202204 16 142 9.7 24.1 0.00 0.03 0.03 45 1017.6
20201202202106 16 144 9.7 24.1 0.00 0.03 0.03 45 1017.6
20201202202022 16 144 9.7 24.1 0.00 0.03 0.03 44 1017.7
20201202201905 16 143 11.3 24.1 0.00 0.03 0.03 45 1017.7
20201202201804 16 147 11.3 24.1 0.00 0.03 0.03 44 1017.6
20201202201708 16 149 9.7 24.1 0.00 0.03 0.03 45 1017.6
20201202201604 16 153 9.7 24.1 0.00 0.03 0.03 45 1017.6
20201202201513 16 154 9.7 24.1 0.00 0.03 0.03 44 1017.6
20201202201403 16 151 9.7 24.1 0.00 0.03 0.03 46 1017.6
20201202201304 16 151 9.7 24.1 0.00 0.03 0.03 47 1017.5
20201202201204 16 151 9.7 24.1 0.00 0.03 0.03 47 1017.6
20201202201104 16 153 11.3 24.1 0.00 0.03 0.03 48 1017.6
20201202201018 16 153 11.3 24.1 0.00 0.03 0.03 48 1017.6
20201202200904 16 155 11.3 20.9 0.00 0.03 0.03 50 1017.6
20201202200806 17 153 11.3 20.9 0.00 0.03 0.03 51 1017.5
20201202200704 17 153 11.3 20.9 0.00 0.03 0.03 50 1017.5
20201202200606 17 152 11.3 20.9 0.00 0.03 0.03 51 1017.6
20201202200522 17 149 11.3 20.9 0.00 0.03 0.03 52 1017.6
20201202200404 17 148 11.3 20.9 0.00 0.03 0.03 52 1017.6
20201202200308 17 146 11.3 20.9 0.00 0.03 0.03 53 1017.6
20201202200205 17 146 11.3 20.9 0.00 0.03 0.03 52 1017.5
20201202200106 17 145 11.3 20.9 0.00 0.03 0.03 53 1017.6
20201202200023 17 140 11.3 20.9 0.00 0.03 0.03 54 1017.5
20201202195909 17 138 9.7 20.9 0.00 0.03 0.03 54 1017.5
20201202195805 17 138 9.7 20.9 0.00 0.03 0.03 55 1017.5
20201202195706 17 136 9.7 20.9 0.00 0.03 0.03 55 1017.5
20201202195604 16 136 9.7 20.9 0.00 0.03 0.03 55 1017.5
20201202195517 16 139 8.0 20.9 0.00 0.03 0.03 56 1017.5
20201202195404 16 142 8.0 19.3 0.00 0.03 0.03 57 1017.5
20201202195308 16 146 8.0 19.3 0.00 0.03 0.03 58 1017.4
20201202195208 16 144 6.4 19.3 0.00 0.03 0.03 60 1017.4
20201202195104 16 142 6.4 19.3 0.00 0.03 0.03 60 1017.4
20201202195023 16 146 6.4 14.5 0.00 0.03 0.03 61 1017.4
20201202194904 16 147 6.4 14.5 0.00 0.03 0.03 61 1017.4
20201202194807 16 143 6.4 12.9 0.00 0.03 0.03 61 1017.4
20201202194705 16 142 6.4 12.9 0.00 0.03 0.03 62 1017.4
20201202194606 16 141 6.4 12.9 0.00 0.03 0.03 61 1017.4
20201202194523 16 141 6.4 12.9 0.00 0.03 0.03 61 1017.4
20201202194404 16 141 6.4 12.9 0.00 0.03 0.03 61 1017.4
20201202194305 16 143 4.8 11.3 0.00 0.03 0.03 61 1017.4
20201202194204 16 144 6.4 11.3 0.00 0.03 0.03 61 1017.4
20201202194105 16 145 4.8 11.3 0.00 0.03 0.03 60 1017.4
20201202194016 16 146 6.4 14.5 0.00 0.03 0.03 61 1017.4
20201202193906 16 148 6.4 14.5 0.00 0.03 0.03 61 1017.4
20201202193804 16 150 6.4 14.5 0.00 0.03 0.03 62 1017.4
20201202193704 16 148 6.4 14.5 0.00 0.03 0.03 62 1017.4
20201202193613 16 147 6.4 14.5 0.00 0.03 0.03 62 1017.4
20201202193513 16 145 6.4 14.5 0.00 0.03 0.03 62 1017.4
20201202193403 16 143 6.4 14.5 0.00 0.03 0.03 62 1017.4
20201202193304 16 142 6.4 14.5 0.00 0.03 0.03 62 1017.5
20201202193206 16 141 6.4 14.5 0.00 0.03 0.03 62 1017.5
20201202193114 16 142 6.4 14.5 0.00 0.03 0.03 62 1017.6
20201202193025 16 142 6.4 12.9 0.00 0.03 0.03 62 1017.6
20201202192916 16 141 6.4 12.9 0.00 0.03 0.03 62 1017.6
20201202192804 16 142 6.4 12.9 0.00 0.03 0.03 62 1017.6
20201202192711 16 142 6.4 12.9 0.00 0.03 0.03 62 1017.6
20201202192605 16 141 4.8 12.9 0.00 0.03 0.03 63 1017.6
20201202192516 16 141 4.8 11.3 0.00 0.03 0.03 63 1017.6
20201202192408 16 140 4.8 11.3 0.00 0.03 0.03 64 1017.6
20201202192310 16 140 4.8 11.3 0.00 0.03 0.03 63 1017.6
20201202192204 16 141 4.8 11.3 0.00 0.03 0.03 63 1017.6
20201202192103 16 139 4.8 11.3 0.00 0.03 0.03 63 1017.6
20201202192020 16 138 3.2 9.7 0.00 0.03 0.03 64 1017.6
20201202191911 16 140 3.2 9.7 0.00 0.03 0.03 65 1017.6
20201202191804 16 143 3.2 9.7 0.00 0.03 0.03 66 1017.6
20201202191704 16 144 3.2 9.7 0.00 0.03 0.03 66 1017.6
20201202191604 16 148 3.2 9.7 0.00 0.03 0.03 66 1017.7
20201202191514 16 154 3.2 9.7 0.00 0.03 0.03 68 1017.7
20201202191406 16 158 4.8 9.7 0.00 0.03 0.03 68 1017.7
20201202191305 16 160 4.8 9.7 0.00 0.03 0.03 69 1017.7
20201202191206 16 160 4.8 9.7 0.00 0.03 0.03 69 1017.7
20201202191107 15 159 4.8 11.3 0.00 0.03 0.03 69 1017.7
20201202191023 15 157 4.8 11.3 0.00 0.03 0.03 69 1017.8
20201202190911 15 157 4.8 11.3 0.00 0.03 0.03 69 1017.8
20201202190804 15 156 4.8 11.3 0.00 0.03 0.03 70 1017.8
20201202190709 15 158 4.8 11.3 0.00 0.03 0.03 69 1017.8
20201202190603 15 159 4.8 11.3 0.00 0.03 0.03 69 1017.8
20201202190511 15 156 4.8 11.3 0.00 0.03 0.03 69 1017.8
20201202190405 15 155 3.2 11.3 0.00 0.03 0.03 69 1017.8
20201202190308 15 153 3.2 11.3 0.00 0.03 0.03 70 1017.8
20201202190215 15 154 3.2 11.3 0.00 0.03 0.03 69 1017.8
20201202190111 15 153 3.2 9.7 0.00 0.03 0.03 70 1017.8
20201202190011 15 154 3.2 9.7 0.00 0.03 0.03 70 1017.8
20201202185906 15 152 3.2 9.7 0.00 0.03 0.03 69 1017.8
20201202185804 15 150 3.2 9.7 0.00 0.03 0.03 69 1017.8
20201202185706 15 144 3.2 9.7 0.00 0.03 0.03 69 1017.8
20201202185603 15 141 3.2 9.7 0.00 0.03 0.03 69 1017.8
20201202185509 15 141 3.2 9.7 0.00 0.03 0.03 70 1017.8
20201202185403 15 140 3.2 9.7 0.00 0.03 0.03 69 1017.8
20201202185307 15 140 3.2 9.7 0.00 0.03 0.03 69 1017.8
20201202185204 15 138 3.2 9.7 0.00 0.03 0.03 69 1017.9
20201202185104 15 134 3.2 8.0 0.00 0.03 0.03 69 1017.9
20201202185011 15 135 3.2 8.0 0.00 0.03 0.03 70 1017.9
20201202184905 15 137 3.2 9.7 0.00 0.03 0.03 70 1017.9
20201202184806 15 137 3.2 9.7 0.00 0.03 0.03 70 1017.9
20201202184704 15 141 3.2 9.7 0.00 0.03 0.03 70 1018.0
20201202184607 15 145 3.2 9.7 0.00 0.03 0.03 70 1017.9
20201202184518 15 142 3.2 9.7 0.00 0.03 0.03 70 1017.9
20201202184406 15 143 3.2 9.7 0.00 0.03 0.03 70 1018.0
20201202184303 15 138 3.2 9.7 0.00 0.03 0.03 70 1018.0
20201202184203 15 138 3.2 9.7 0.00 0.03 0.03 69 1018.0
20201202184110 15 139 4.8 9.7 0.00 0.03 0.03 70 1017.9
20201202184016 15 140 4.8 9.7 0.00 0.03 0.03 70 1018.0
20201202183904 15 140 4.8 9.7 0.00 0.03 0.03 71 1018.0
20201202183808 15 139 4.8 9.7 0.00 0.03 0.03 71 1017.9
20201202183706 15 138 4.8 9.7 0.00 0.03 0.03 70 1017.9
20201202183605 15 139 4.8 11.3 0.00 0.03 0.03 70 1017.9
20201202183515 15 139 4.8 11.3 0.00 0.03 0.03 70 1017.9
20201202183411 15 138 4.8 11.3 0.00 0.03 0.03 70 1017.9
20201202183303 15 141 4.8 11.3 0.00 0.03 0.03 70 1017.9
20201202183203 15 142 4.8 11.3 0.00 0.03 0.03 70 1017.9
20201202183104 15 141 4.8 11.3 0.00 0.03 0.03 71 1018.0
20201202183010 15 138 4.8 11.3 0.00 0.03 0.03 71 1018.0
20201202182904 15 138 3.2 11.3 0.00 0.03 0.03 72 1018.0
20201202182806 15 141 3.2 11.3 0.00 0.03 0.03 72 1018.0
20201202182705 15 143 3.2 11.3 0.00 0.03 0.03 72 1018.1
20201202182609 15 139 3.2 9.7 0.00 0.03 0.03 74 1018.1
20201202182521 15 139 3.2 9.7 0.00 0.03 0.03 74 1018.1
20201202182403 15 139 3.2 9.7 0.00 0.03 0.03 73 1018.1
20201202182305 15 141 3.2 9.7 0.00 0.03 0.03 73 1018.1
20201202182212 15 143 3.2 9.7 0.00 0.03 0.03 73 1018.2
20201202182104 15 146 3.2 9.7 0.00 0.03 0.03 73 1018.2
20201202182018 15 152 3.2 9.7 0.00 0.03 0.03 74 1018.2
20201202181905 15 152 3.2 9.7 0.00 0.03 0.03 74 1018.2
20201202181808 15 154 3.2 9.7 0.00 0.03 0.03 74 1018.2
20201202181704 15 156 4.8 9.7 0.00 0.03 0.03 75 1018.2
20201202181608 15 160 4.8 9.7 0.00 0.03 0.03 75 1018.3
20201202181519 15 162 4.8 9.7 0.00 0.03 0.03 75 1018.3
20201202181404 15 165 4.8 9.7 0.00 0.03 0.03 75 1018.3
20201202181305 15 165 4.8 9.7 0.00 0.03 0.03 75 1018.3
20201202181206 15 163 4.8 9.7 0.00 0.03 0.03 74 1018.3
20201202181103 15 164 4.8 9.7 0.00 0.03 0.03 75 1018.3
20201202181024 15 165 4.8 9.7 0.00 0.03 0.03 75 1018.3
20201202180906 15 168 4.8 9.7 0.00 0.03 0.03 76 1018.3
20201202180804 15 166 3.2 9.7 0.00 0.03 0.03 76 1018.3
20201202180706 15 168 4.8 9.7 0.00 0.03 0.03 76 1018.3
20201202180613 15 167 4.8 9.7 0.00 0.03 0.03 76 1018.3
20201202180515 15 167 4.8 9.7 0.00 0.03 0.03 76 1018.3
20201202180417 15 166 3.2 9.7 0.00 0.03 0.03 76 1018.3
20201202180303 15 166 3.2 9.7 0.00 0.03 0.03 77 1018.3
20201202180204 15 167 4.8 9.7 0.00 0.03 0.03 77 1018.3
20201202180105 15 166 4.8 9.7 0.00 0.03 0.03 77 1018.3
20201202180019 15 165 4.8 9.7 0.00 0.03 0.03 77 1018.3
20201202175903 15 164 4.8 11.3 0.00 0.03 0.03 77 1018.3
20201202175803 15 163 4.8 11.3 0.00 0.03 0.03 77 1018.3
20201202175704 15 161 4.8 11.3 0.00 0.03 0.03 78 1018.3
20201202175604 15 160 4.8 11.3 0.00 0.03 0.03 77 1018.3
20201202175515 15 158 4.8 11.3 0.00 0.03 0.03 77 1018.3
20201202175404 15 157 4.8 11.3 0.00 0.03 0.03 78 1018.3
20201202175306 15 158 4.8 11.3 0.00 0.03 0.03 78 1018.3
20201202175203 15 155 4.8 11.3 0.00 0.03 0.03 78 1018.3
20201202175104 15 156 4.8 11.3 0.00 0.03 0.03 77 1018.3
20201202175019 15 154 4.8 11.3 0.00 0.03 0.03 78 1018.3
20201202174909 15 154 3.2 11.3 0.00 0.03 0.03 79 1018.3
20201202174805 15 154 3.2 11.3 0.00 0.03 0.03 79 1018.3
20201202174711 15 154 3.2 11.3 0.00 0.03 0.03 79 1018.3
20201202174607 15 152 3.2 11.3 0.00 0.03 0.03 79 1018.4
20201202174516 15 148 3.2 11.3 0.00 0.03 0.03 79 1018.4
20201202174403 15 147 3.2 11.3 0.00 0.03 0.03 79 1018.5
20201202174304 15 142 3.2 11.3 0.00 0.03 0.03 80 1018.5
20201202174206 15 139 3.2 11.3 0.00 0.03 0.03 80 1018.6
20201202174103 15 134 3.2 11.3 0.00 0.03 0.03 81 1018.6
20201202174020 14 137 3.2 12.9 0.00 0.03 0.03 81 1018.5
20201202173910 14 140 4.8 12.9 0.00 0.03 0.03 81 1018.5
20201202173811 14 139 4.8 12.9 0.00 0.03 0.03 81 1018.6
20201202173707 14 137 4.8 12.9 0.00 0.03 0.03 81 1018.5
20201202173603 14 139 4.8 12.9 0.00 0.03 0.03 82 1018.6
20201202173514 14 140 6.4 12.9 0.00 0.03 0.03 82 1018.6
20201202173410 14 141 6.4 12.9 0.00 0.03 0.03 81 1018.6
20201202173307 14 141 6.4 12.9 0.00 0.03 0.03 82 1018.6
20201202173206 14 142 6.4 12.9 0.00 0.03 0.03 82 1018.6
20201202173108 14 142 6.4 12.9 0.00 0.03 0.03 82 1018.6
20201202173019 14 140 6.4 12.9 0.00 0.03 0.03 83 1018.6
20201202172905 14 137 6.4 12.9 0.00 0.03 0.03 83 1018.6
20201202172806 14 137 6.4 12.9 0.00 0.03 0.03 84 1018.6
20201202172708 14 139 6.4 12.9 0.00 0.03 0.03 85 1018.7
20201202172603 14 139 6.4 12.9 0.00 0.03 0.03 85 1018.6
20201202172512 14 138 6.4 12.9 0.00 0.03 0.03 85 1018.6
20201202172407 14 137 6.4 12.9 0.00 0.03 0.03 85 1018.6
20201202172307 14 137 6.4 12.9 0.00 0.03 0.03 85 1018.6
20201202172207 14 139 6.4 12.9 0.00 0.03 0.03 85 1018.6
20201202172117 14 139 6.4 12.9 0.00 0.03 0.03 85 1018.6
20201202172020 14 138 6.4 12.9 0.00 0.03 0.03 85 1018.7
20201202171911 14 139 6.4 12.9 0.00 0.03 0.03 86 1018.6
20201202171804 14 141 6.4 12.9 0.00 0.03 0.03 86 1018.6
20201202171705 14 141 6.4 12.9 0.00 0.03 0.03 86 1018.6
20201202171608 14 140 6.4 12.9 0.00 0.03 0.03 87 1018.7
20201202171517 14 141 6.4 12.9 0.00 0.03 0.03 87 1018.6
20201202171405 14 146 6.4 12.9 0.00 0.03 0.03 87 1018.7
20201202171305 14 149 6.4 12.9 0.00 0.03 0.03 88 1018.7
20201202171205 14 150 6.4 12.9 0.00 0.03 0.03 87 1018.7
20201202171106 13 152 6.4 12.9 0.00 0.03 0.03 88 1018.7
20201202171008 13 156 4.8 12.9 0.00 0.03 0.03 88 1018.7
20201202170912 13 159 4.8 12.9 0.00 0.03 0.03 89 1018.8
20201202170806 13 162 4.8 12.9 0.03 0.03 0.03 89 1018.7
20201202170704 13 163 4.8 12.9 0.03 0.03 0.03 89 1018.7
20201202170604 13 162 4.8 12.9 0.03 0.03 0.03 89 1018.8
20201202170512 13 161 4.8 12.9 0.03 0.03 0.03 89 1018.9
20201202170403 13 157 4.8 11.3 0.03 0.03 0.03 89 1018.8
20201202170308 13 156 6.4 14.5 0.03 0.03 0.03 89 1018.9
20201202170203 13 153 6.4 14.5 0.03 0.03 0.03 90 1018.9
20201202170104 13 153 4.8 14.5 0.03 0.03 0.03 90 1019.0
20201202170017 13 152 4.8 14.5 0.03 0.03 0.03 90 1018.9
20201202165905 13 149 6.4 14.5 0.03 0.03 0.03 90 1018.8
20201202165804 13 146 6.4 14.5 0.03 0.03 0.03 90 1018.8
20201202165704 13 146 6.4 14.5 0.03 0.03 0.03 90 1018.8
20201202165606 13 146 6.4 14.5 0.03 0.03 0.03 90 1018.8
20201202165509 13 145 4.8 14.5 0.03 0.03 0.03 90 1018.8
20201202165404 13 144 4.8 14.5 0.03 0.03 0.03 90 1018.9
20201202165308 13 144 4.8 11.3 0.03 0.03 0.03 91 1018.9
20201202165204 13 145 3.2 11.3 0.03 0.03 0.03 91 1018.9
20201202165106 13 144 3.2 11.3 0.03 0.03 0.03 91 1019.0
20201202165019 13 145 3.2 11.3 0.03 0.03 0.03 91 1019.0
20201202164904 13 145 3.2 11.3 0.03 0.03 0.03 91 1019.0
20201202164806 13 145 3.2 11.3 0.03 0.03 0.03 91 1019.2
20201202164706 13 143 1.6 8.0 0.03 0.03 0.03 91 1019.2
20201202164608 13 143 1.6 8.0 0.03 0.03 0.03 91 1019.2
20201202164517 13 144 1.6 8.0 0.03 0.03 0.03 91 1019.3
20201202164406 13 144 1.6 8.0 0.03 0.03 0.03 91 1019.2
20201202164317 12 145 1.6 8.0 0.03 0.03 0.03 91 1019.2
20201202164207 12 141 1.6 4.8 0.03 0.03 0.03 91 1019.2
20201202164103 12 140 1.6 4.8 0.03 0.03 0.03 91 1019.2
20201202164022 12 139 1.6 4.8 0.03 0.03 0.03 91 1019.2
20201202163903 12 140 1.6 4.8 0.03 0.03 0.03 91 1019.1
20201202163804 12 141 1.6 4.8 0.03 0.03 0.03 91 1019.1
20201202163709 12 142 0.0 4.8 0.03 0.03 0.03 91 1019.1
20201202163609 12 147 0.0 4.8 0.03 0.03 0.03 91 1019.1
20201202163523 12 150 0.0 3.2 0.03 0.03 0.03 91 1019.1
20201202163406 12 150 0.0 3.2 0.03 0.03 0.03 91 1019.1
20201202163321 12 149 0.0 1.6 0.03 0.03 0.03 91 1019.1
20201202163255 12 145 0.0 1.6 0.03 0.03 0.03 91 1019.1
20201202163132 12 159 0.0 4.8 0.03 0.03 0.03 91 1019.2
20201202163021 12 160 0.0 4.8 0.03 0.03 0.03 91 1019.1
20201202162906 12 158 0.0 4.8 0.03 0.03 0.03 91 1019.0
20201202162804 12 155 0.0 4.8 0.03 0.03 0.03 91 1019.0
20201202162705 12 157 0.0 4.8 0.03 0.03 0.03 91 1019.1
20201202162614 12 157 0.0 4.8 0.03 0.03 0.03 91 1019.1
20201202162524 12 157 0.0 4.8 0.03 0.03 0.03 91 1019.1
20201202162404 12 159 0.0 4.8 0.03 0.03 0.03 91 1019.1
20201202162314 12 161 1.6 4.8 0.03 0.03 0.03 91 1019.1
20201202162203 12 164 1.6 4.8 0.03 0.03 0.03 91 1019.1
20201202162103 12 162 1.6 4.8 0.03 0.03 0.03 91 1019.1
20201202162010 12 162 1.6 4.8 0.03 0.03 0.03 91 1019.1
20201202161909 12 163 1.6 4.8 0.03 0.03 0.03 91 1019.1
20201202161803 12 165 1.6 4.8 0.03 0.03 0.03 91 1019.1
20201202161703 12 165 0.0 4.8 0.03 0.03 0.03 91 1019.1
20201202161607 12 165 0.0 4.8 0.03 0.03 0.03 91 1019.1
20201202161519 12 165 0.0 4.8 0.03 0.03 0.03 91 1019.1
20201202161407 12 165 0.0 4.8 0.03 0.03 0.03 91 1019.1
20201202161303 12 163 0.0 4.8 0.03 0.03 0.03 91 1019.1
20201202161204 12 161 0.0 4.8 0.03 0.03 0.03 91 1019.1
20201202161104 12 160 0.0 4.8 0.03 0.03 0.03 91 1019.1
20201202161011 12 0 0.0 1.6 0.03 0.03 0.03 91 1019.2
20201202160907 12 0 0.0 1.6 0.00 0.00 0.00 91 1019.2
20201202160804 12 0 0.0 0.0 0.00 0.00 0.00 91 1019.2
20201202160703 12 0 0.0 4.8 0.00 0.00 0.00 91 1019.2
20201202160605 12 0 0.0 4.8 0.00 0.00 0.00 91 1019.2
20201202160508 12 0 0.0 4.8 0.00 0.00 0.00 91 1019.2
20201202160403 12 0 0.0 4.8 0.00 0.00 0.00 91 1019.2
20201202160311 12 0 0.0 4.8 0.00 0.00 0.00 91 1019.2
20201202160205 12 0 0.0 4.8 0.00 0.00 0.00 91 1019.1
20201202160105 12 0 0.0 4.8 0.00 0.00 0.00 91 1019.1
20201202160017 11 0 0.0 4.8 0.00 0.00 0.00 91 1019.1
20201202155903 12 175 0.0 4.8 0.00 0.00 0.00 91 1019.1
20201202155804 12 173 0.0 4.8 0.00 0.00 0.00 91 1019.1
20201202155708 12 171 0.0 4.8 0.00 0.00 0.00 91 1019.1
20201202155604 12 171 0.0 4.8 0.00 0.00 0.00 91 1019.1
20201202155516 12 171 0.0 4.8 0.00 0.00 0.00 91 1019.1
20201202155403 12 171 0.0 4.8 0.00 0.00 0.00 91 1019.0
20201202155312 12 171 0.0 4.8 0.00 0.00 0.00 91 1019.1
20201202155206 12 171 0.0 4.8 0.00 0.00 0.00 91 1019.0
20201202155103 12 170 0.0 4.8 0.00 0.00 0.00 91 1019.0
20201202155023 12 170 0.0 4.8 0.00 0.00 0.00 91 1019.1
20201202154905 12 170 0.0 4.8 0.00 0.00 0.00 91 1019.1
20201202154806 12 167 0.0 4.8 0.00 0.00 0.00 91 1019.1
20201202154709 12 159 0.0 1.6 0.00 0.00 0.00 91 1019.1
20201202154612 12 159 0.0 1.6 0.00 0.00 0.00 91 1019.1
20201202154508 12 159 0.0 1.6 0.00 0.00 0.00 91 1019.1
20201202154407 12 159 0.0 1.6 0.00 0.00 0.00 91 1019.1
20201202154309 12 228 0.0 1.6 0.00 0.00 0.00 91 1019.0
20201202154205 12 238 0.0 4.8 0.00 0.00 0.00 91 1019.0
20201202154110 12 242 0.0 4.8 0.00 0.00 0.00 91 1019.0
20201202154018 12 242 0.0 4.8 0.00 0.00 0.00 91 1019.0
20201202153907 12 242 0.0 4.8 0.00 0.00 0.00 91 1019.0
20201202153804 12 242 0.0 4.8 0.00 0.00 0.00 91 1018.8
20201202153704 11 242 0.0 4.8 0.00 0.00 0.00 91 1018.9
20201202153605 11 242 0.0 4.8 0.00 0.00 0.00 91 1018.9